Time,TemperatureF,DewpointF,PressureIn,WindDirection,WindDirectionDegrees,WindSpeedMPH,WindSpeedGustMPH,Humidity,HourlyPrecipIn,Conditions,Clouds,dailyrainin,SoftwareType,DateUTC
2013-05-11 00:00:00,60.9,55.7,30.07,WNW,292,0.0,0.0,83,0.00,,CLR,0.00,VWS V14.01,2013-05-11 07:00:00,
2013-05-11 00:03:00,60.9,55.7,30.07,WNW,292,0.0,1.0,83,0.00,,CLR,0.00,VWS V14.01,2013-05-11 07:03:00,
2013-05-11 00:04:00,61.0,55.8,30.07,WNW,292,0.0,1.0,83,0.00,,CLR,0.00,VWS V14.01,2013-05-11 07:04:00,
2013-05-11 00:05:00,61.0,55.8,30.07,WNW,292,0.0,1.0,83,0.00,,CLR,0.00,VWS V14.01,2013-05-11 07:05:00,
2013-05-11 00:06:00,61.0,55.8,30.07,WNW,292,0.0,1.0,83,0.00,,CLR,0.00,VWS V14.01,2013-05-11 07:06:00,
2013-05-11 00:09:00,61.0,55.8,30.07,WNW,292,0.0,0.0,83,0.00,,CLR,0.00,VWS V14.01,2013-05-11 07:09:00,
2013-05-11 00:10:00,61.0,55.8,30.07,WNW,292,0.0,0.0,83,0.00,,CLR,0.00,VWS V14.01,2013-05-11 07:10:00,
2013-05-11 00:12:00,61.0,55.8,30.07,WNW,292,0.0,0.0,83,0.00,,CLR,0.00,VWS V14.01,2013-05-11 07:12:00,
2013-05-11 00:15:00,61.0,55.8,30.07,WNW,292,0.0,0.0,83,0.00,,CLR,0.00,VWS V14.01,2013-05-11 07:15:00,
2013-05-11 00:16:00,61.0,55.8,30.08,WNW,292,0.0,0.0,83,0.00,,CLR,0.00,VWS V14.01,2013-05-11 07:16:00,
2013-05-11 00:18:00,61.0,55.5,30.08,WNW,292,0.0,0.0,82,0.00,,CLR,0.00,VWS V14.01,2013-05-11 07:18:00,
2013-05-11 00:20:00,61.0,55.5,30.08,WNW,292,0.0,0.0,82,0.00,,CLR,0.00,VWS V14.01,2013-05-11 07:20:00,
2013-05-11 00:22:00,60.9,55.4,30.08,WNW,292,0.0,0.0,82,0.00,,CLR,0.00,VWS V14.01,2013-05-11 07:22:00,
2013-05-11 00:23:00,60.9,55.4,30.08,WNW,292,0.0,0.0,82,0.00,,CLR,0.00,VWS V14.01,2013-05-11 07:23:00,
2013-05-11 00:25:00,60.9,55.4,30.08,WNW,292,0.0,0.0,82,0.00,,CLR,0.00,VWS V14.01,2013-05-11 07:25:00,
2013-05-11 00:26:00,60.9,55.4,30.08,WNW,292,0.0,0.0,82,0.00,,CLR,0.00,VWS V14.01,2013-05-11 07:26:00,
2013-05-11 00:28:00,60.9,55.4,30.08,WNW,292,0.0,0.0,82,0.00,,CLR,0.00,VWS V14.01,2013-05-11 07:28:00,
2013-05-11 00:29:00,60.7,55.2,30.08,WNW,292,0.0,0.0,82,0.00,,CLR,0.00,VWS V14.01,2013-05-11 07:29:00,
2013-05-11 00:30:00,60.7,55.2,30.08,WNW,292,0.0,0.0,82,0.00,,CLR,0.00,VWS V14.01,2013-05-11 07:30:00,
2013-05-11 00:31:00,60.7,55.2,30.08,WNW,292,0.0,0.0,82,0.00,,CLR,0.00,VWS V14.01,2013-05-11 07:31:00,
2013-05-11 00:34:00,60.5,55.3,30.08,WNW,292,0.0,0.0,83,0.00,,CLR,0.00,VWS V14.01,2013-05-11 07:34:00,
2013-05-11 00:35:00,60.5,55.3,30.08,WNW,292,0.0,1.0,83,0.00,,CLR,0.00,VWS V14.01,2013-05-11 07:35:00,
2013-05-11 00:36:00,60.4,55.2,30.08,WNW,292,0.0,1.0,83,0.00,,CLR,0.00,VWS V14.01,2013-05-11 07:36:00,
2013-05-11 00:37:00,60.4,55.2,30.08,WNW,292,1.0,1.0,83,0.00,,CLR,0.00,VWS V14.01,2013-05-11 07:37:00,
2013-05-11 00:39:00,60.2,55.0,30.08,WNW,294,0.0,1.0,83,0.00,,CLR,0.00,VWS V14.01,2013-05-11 07:39:00,
2013-05-11 00:40:00,60.1,55.3,30.08,WNW,298,0.0,1.0,84,0.00,,CLR,0.00,VWS V14.01,2013-05-11 07:40:00,
2013-05-11 00:42:00,59.9,55.1,30.08,ENE,64,1.0,2.0,84,0.00,,CLR,0.00,VWS V14.01,2013-05-11 07:42:00,
2013-05-11 00:43:00,59.9,55.1,30.08,ENE,64,2.0,2.0,84,0.00,,CLR,0.00,VWS V14.01,2013-05-11 07:43:00,
2013-05-11 00:44:00,59.9,55.1,30.08,ENE,64,1.0,2.0,84,0.00,,CLR,0.00,VWS V14.01,2013-05-11 07:44:00,
2013-05-11 00:47:00,59.8,55.3,30.09,ENE,64,0.0,0.0,85,0.00,,CLR,0.00,VWS V14.01,2013-05-11 07:47:00,
2013-05-11 00:48:00,59.8,55.3,30.09,ENE,64,0.0,0.0,85,0.00,,CLR,0.00,VWS V14.01,2013-05-11 07:48:00,
2013-05-11 00:49:00,59.6,55.1,30.09,ENE,64,0.0,1.0,85,0.00,,CLR,0.00,VWS V14.01,2013-05-11 07:49:00,
2013-05-11 00:51:00,59.6,55.1,30.09,ENE,64,1.0,2.0,85,0.00,,CLR,0.00,VWS V14.01,2013-05-11 07:51:00,
2013-05-11 00:53:00,59.6,55.1,30.09,ENE,64,1.0,2.0,85,0.00,,CLR,0.00,VWS V14.01,2013-05-11 07:53:00,
2013-05-11 00:54:00,59.6,55.1,30.09,ENE,64,1.0,3.0,85,0.00,,CLR,0.00,VWS V14.01,2013-05-11 07:54:00,
2013-05-11 00:55:00,59.6,55.1,30.09,ENE,64,1.0,3.0,85,0.00,,CLR,0.00,VWS V14.01,2013-05-11 07:55:00,
2013-05-11 00:57:00,59.5,55.0,30.09,ENE,64,0.0,0.0,85,0.00,,CLR,0.00,VWS V14.01,2013-05-11 07:57:00,
2013-05-11 01:00:00,59.5,55.0,30.09,ENE,64,0.0,1.0,85,0.00,,CLR,0.00,VWS V14.01,2013-05-11 08:00:00,
2013-05-11 01:01:00,59.5,55.0,30.09,ENE,64,0.0,1.0,85,0.00,,CLR,0.00,VWS V14.01,2013-05-11 08:01:00,
2013-05-11 01:04:00,59.5,55.0,30.09,ENE,64,0.0,0.0,85,0.00,,CLR,0.00,VWS V14.01,2013-05-11 08:04:00,
2013-05-11 01:05:00,59.5,55.0,30.09,ENE,64,0.0,0.0,85,0.00,,CLR,0.00,VWS V14.01,2013-05-11 08:05:00,
2013-05-11 01:07:00,59.3,54.8,30.09,ENE,64,0.0,0.0,85,0.00,,CLR,0.00,VWS V14.01,2013-05-11 08:07:00,
2013-05-11 01:08:00,59.3,54.8,30.09,ENE,64,0.0,0.0,85,0.00,,CLR,0.00,VWS V14.01,2013-05-11 08:08:00,
2013-05-11 01:10:00,59.3,54.8,30.09,ENE,64,0.0,1.0,85,0.00,,CLR,0.00,VWS V14.01,2013-05-11 08:10:00,
2013-05-11 01:11:00,59.3,54.8,30.09,ENE,64,0.0,1.0,85,0.00,,CLR,0.00,VWS V14.01,2013-05-11 08:11:00,
2013-05-11 01:15:00,59.3,54.8,30.09,ENE,64,0.0,0.0,85,0.00,,CLR,0.00,VWS V14.01,2013-05-11 08:15:00,
2013-05-11 01:16:00,59.3,54.8,30.10,ENE,64,2.0,2.0,85,0.00,,CLR,0.00,VWS V14.01,2013-05-11 08:16:00,
2013-05-11 01:20:00,59.3,54.8,30.10,ENE,64,2.0,2.0,85,0.00,,CLR,0.00,VWS V14.01,2013-05-11 08:20:00,
2013-05-11 01:21:00,59.3,54.8,30.10,ENE,64,1.0,2.0,85,0.00,,CLR,0.00,VWS V14.01,2013-05-11 08:21:00,
2013-05-11 01:22:00,59.3,54.8,30.10,ENE,64,1.0,1.0,85,0.00,,CLR,0.00,VWS V14.01,2013-05-11 08:22:00,
2013-05-11 01:26:00,59.2,54.4,30.10,ENE,64,0.0,2.0,84,0.00,,CLR,0.00,VWS V14.01,2013-05-11 08:26:00,
2013-05-11 01:27:00,59.3,54.5,30.10,ENE,64,0.0,0.0,84,0.00,,CLR,0.00,VWS V14.01,2013-05-11 08:27:00,
2013-05-11 01:28:00,59.3,54.2,30.10,ENE,64,1.0,1.0,83,0.00,,CLR,0.00,VWS V14.01,2013-05-11 08:28:00,
2013-05-11 01:32:00,59.3,54.2,30.10,ENE,64,1.0,1.0,83,0.00,,CLR,0.00,VWS V14.01,2013-05-11 08:32:00,
2013-05-11 01:33:00,59.3,54.2,30.10,ENE,64,1.0,1.0,83,0.00,,CLR,0.00,VWS V14.01,2013-05-11 08:33:00,
2013-05-11 01:36:00,59.3,54.2,30.10,ENE,64,1.0,2.0,83,0.00,,CLR,0.00,VWS V14.01,2013-05-11 08:36:00,
2013-05-11 01:38:00,59.2,53.7,30.10,ENE,64,1.0,1.0,82,0.00,,CLR,0.00,VWS V14.01,2013-05-11 08:38:00,
2013-05-11 01:41:00,59.2,53.7,30.10,ENE,64,2.0,2.0,82,0.00,,CLR,0.00,VWS V14.01,2013-05-11 08:41:00,
2013-05-11 01:43:00,59.0,53.5,30.10,ENE,64,1.0,2.0,82,0.00,,CLR,0.00,VWS V14.01,2013-05-11 08:43:00,
2013-05-11 01:44:00,59.0,53.5,30.10,ENE,64,1.0,2.0,82,0.00,,CLR,0.00,VWS V14.01,2013-05-11 08:44:00,
2013-05-11 01:46:00,59.0,53.5,30.10,ENE,64,1.0,2.0,82,0.00,,CLR,0.00,VWS V14.01,2013-05-11 08:46:00,
2013-05-11 01:48:00,59.0,53.5,30.10,ENE,64,0.0,1.0,82,0.00,,CLR,0.00,VWS V14.01,2013-05-11 08:48:00,
2013-05-11 01:52:00,58.9,53.8,30.10,ENE,64,0.0,0.0,83,0.00,,CLR,0.00,VWS V14.01,2013-05-11 08:52:00,
2013-05-11 01:53:00,58.9,53.8,30.10,ENE,64,0.0,0.0,83,0.00,,CLR,0.00,VWS V14.01,2013-05-11 08:53:00,
2013-05-11 01:57:00,58.7,53.2,30.10,ENE,64,0.0,0.0,82,0.00,,CLR,0.00,VWS V14.01,2013-05-11 08:57:00,
2013-05-11 01:59:00,58.7,53.2,30.10,ENE,64,1.0,2.0,82,0.00,,CLR,0.00,VWS V14.01,2013-05-11 08:59:00,
2013-05-11 02:00:00,58.7,53.2,30.10,ENE,64,1.0,2.0,82,0.00,,CLR,0.00,VWS V14.01,2013-05-11 09:00:00,
2013-05-11 02:03:00,58.7,53.6,30.10,ENE,64,3.0,3.0,83,0.00,,CLR,0.00,VWS V14.01,2013-05-11 09:03:00,
2013-05-11 02:04:00,58.6,53.8,30.10,ENE,64,2.0,3.0,84,0.00,,CLR,0.00,VWS V14.01,2013-05-11 09:04:00,
2013-05-11 02:06:00,58.6,53.8,30.10,ENE,64,2.0,3.0,84,0.00,,CLR,0.00,VWS V14.01,2013-05-11 09:06:00,
2013-05-11 02:07:00,58.4,53.6,30.10,ENE,64,2.0,2.0,84,0.00,,CLR,0.00,VWS V14.01,2013-05-11 09:07:00,
2013-05-11 02:11:00,58.3,53.8,30.10,ENE,64,0.0,2.0,85,0.00,,CLR,0.00,VWS V14.01,2013-05-11 09:11:00,
2013-05-11 02:12:00,58.3,53.8,30.10,ENE,64,0.0,0.0,85,0.00,,CLR,0.00,VWS V14.01,2013-05-11 09:12:00,
2013-05-11 02:13:00,58.3,53.8,30.10,ENE,64,2.0,2.0,85,0.00,,CLR,0.00,VWS V14.01,2013-05-11 09:13:00,
2013-05-11 02:15:00,58.1,53.6,30.10,ENE,64,1.0,2.0,85,0.00,,CLR,0.00,VWS V14.01,2013-05-11 09:15:00,
2013-05-11 02:16:00,58.1,53.6,30.09,ENE,64,2.0,2.0,85,0.00,,CLR,0.00,VWS V14.01,2013-05-11 09:16:00,
2013-05-11 02:18:00,58.1,53.6,30.09,ENE,64,1.0,2.0,85,0.00,,CLR,0.00,VWS V14.01,2013-05-11 09:18:00,
2013-05-11 02:19:00,58.1,53.6,30.09,ENE,64,0.0,2.0,85,0.00,,CLR,0.00,VWS V14.01,2013-05-11 09:19:00,
2013-05-11 02:21:00,58.0,53.5,30.09,ENE,64,0.0,2.0,85,0.00,,CLR,0.00,VWS V14.01,2013-05-11 09:21:00,
2013-05-11 02:23:00,58.0,53.5,30.09,ENE,64,0.0,0.0,85,0.00,,CLR,0.00,VWS V14.01,2013-05-11 09:23:00,
2013-05-11 02:25:00,58.0,53.5,30.09,ENE,64,0.0,0.0,85,0.00,,CLR,0.00,VWS V14.01,2013-05-11 09:25:00,
2013-05-11 02:28:00,57.8,53.3,30.09,ENE,64,0.0,0.0,85,0.00,,CLR,0.00,VWS V14.01,2013-05-11 09:28:00,
2013-05-11 02:29:00,57.8,53.3,30.09,ENE,64,0.0,0.0,85,0.00,,CLR,0.00,VWS V14.01,2013-05-11 09:29:00,
2013-05-11 02:30:00,57.8,53.3,30.09,ENE,64,0.0,0.0,85,0.00,,CLR,0.00,VWS V14.01,2013-05-11 09:30:00,
2013-05-11 02:32:00,57.8,53.3,30.09,ENE,64,0.0,0.0,85,0.00,,CLR,0.00,VWS V14.01,2013-05-11 09:32:00,
2013-05-11 02:34:00,57.8,53.3,30.09,ENE,64,0.0,0.0,85,0.00,,CLR,0.00,VWS V14.01,2013-05-11 09:34:00,
2013-05-11 02:36:00,57.6,53.1,30.09,ENE,64,0.0,0.0,85,0.00,,CLR,0.00,VWS V14.01,2013-05-11 09:36:00,
2013-05-11 02:39:00,57.6,53.5,30.09,ENE,64,0.0,0.0,86,0.00,,CLR,0.00,VWS V14.01,2013-05-11 09:39:00,
2013-05-11 02:41:00,57.5,53.3,30.09,ENE,64,0.0,1.0,86,0.00,,CLR,0.00,VWS V14.01,2013-05-11 09:41:00,
2013-05-11 02:42:00,57.5,53.3,30.09,ENE,64,0.0,0.0,86,0.00,,CLR,0.00,VWS V14.01,2013-05-11 09:42:00,
2013-05-11 02:43:00,57.5,53.0,30.09,ENE,65,0.0,1.0,85,0.00,,CLR,0.00,VWS V14.01,2013-05-11 09:43:00,
2013-05-11 02:44:00,57.3,52.8,30.09,ENE,65,0.0,3.0,85,0.00,,CLR,0.00,VWS V14.01,2013-05-11 09:44:00,
2013-05-11 02:45:00,57.2,52.7,30.10,ENE,65,0.0,3.0,85,0.00,,CLR,0.00,VWS V14.01,2013-05-11 09:45:00,
2013-05-11 02:50:00,57.0,51.9,30.10,ENE,65,0.0,2.0,83,0.00,,CLR,0.00,VWS V14.01,2013-05-11 09:50:00,
2013-05-11 02:51:00,57.0,51.9,30.10,ENE,65,0.0,2.0,83,0.00,,CLR,0.00,VWS V14.01,2013-05-11 09:51:00,
2013-05-11 02:53:00,56.7,50.9,30.10,East,86,0.0,3.0,81,0.00,,CLR,0.00,VWS V14.01,2013-05-11 09:53:00,
2013-05-11 02:54:00,56.7,50.9,30.10,East,86,1.0,3.0,81,0.00,,CLR,0.00,VWS V14.01,2013-05-11 09:54:00,
2013-05-11 02:56:00,56.5,50.1,30.10,SW,222,3.0,5.0,79,0.00,,CLR,0.00,VWS V14.01,2013-05-11 09:56:00,
2013-05-11 02:57:00,56.3,46.7,30.10,SW,222,0.0,3.0,70,0.00,,CLR,0.00,VWS V14.01,2013-05-11 09:57:00,
2013-05-11 02:59:00,56.2,44.6,30.10,SW,222,0.0,3.0,65,0.00,,CLR,0.00,VWS V14.01,2013-05-11 09:59:00,
2013-05-11 03:02:00,56.3,45.1,30.09,SW,222,0.0,0.0,66,0.00,,CLR,0.00,VWS V14.01,2013-05-11 10:02:00,
2013-05-11 03:03:00,56.3,45.1,30.09,SW,222,0.0,0.0,66,0.00,,CLR,0.00,VWS V14.01,2013-05-11 10:03:00,
2013-05-11 03:05:00,56.3,44.7,30.09,SW,222,0.0,0.0,65,0.00,,CLR,0.00,VWS V14.01,2013-05-11 10:05:00,
2013-05-11 03:06:00,56.3,44.7,30.09,SW,222,0.0,0.0,65,0.00,,CLR,0.00,VWS V14.01,2013-05-11 10:06:00,
2013-05-11 03:08:00,56.5,46.8,30.09,SW,222,0.0,0.0,70,0.00,,CLR,0.00,VWS V14.01,2013-05-11 10:08:00,
2013-05-11 03:10:00,56.5,46.8,30.09,SW,222,0.0,0.0,70,0.00,,CLR,0.00,VWS V14.01,2013-05-11 10:10:00,
2013-05-11 03:11:00,56.5,45.7,30.09,SW,222,0.0,0.0,67,0.00,,CLR,0.00,VWS V14.01,2013-05-11 10:11:00,
2013-05-11 03:14:00,56.3,44.7,30.09,SW,222,0.0,0.0,65,0.00,,CLR,0.00,VWS V14.01,2013-05-11 10:14:00,
2013-05-11 03:15:00,56.5,44.9,30.09,SW,222,0.0,0.0,65,0.00,,CLR,0.00,VWS V14.01,2013-05-11 10:15:00,
2013-05-11 03:16:00,56.5,44.9,30.09,SW,222,0.0,0.0,65,0.00,,CLR,0.00,VWS V14.01,2013-05-11 10:16:00,
2013-05-11 03:17:00,56.5,44.5,30.09,SW,222,0.0,0.0,64,0.00,,CLR,0.00,VWS V14.01,2013-05-11 10:17:00,
2013-05-11 03:18:00,56.3,44.3,30.09,SW,222,0.0,0.0,64,0.00,,CLR,0.00,VWS V14.01,2013-05-11 10:18:00,
2013-05-11 03:21:00,56.3,43.9,30.09,SW,222,0.0,0.0,63,0.00,,CLR,0.00,VWS V14.01,2013-05-11 10:21:00,
2013-05-11 03:22:00,56.3,44.3,30.09,SW,222,0.0,0.0,64,0.00,,CLR,0.00,VWS V14.01,2013-05-11 10:22:00,
2013-05-11 03:23:00,56.5,45.3,30.09,SW,222,0.0,0.0,66,0.00,,CLR,0.00,VWS V14.01,2013-05-11 10:23:00,
2013-05-11 03:26:00,56.3,45.5,30.09,SW,222,0.0,0.0,67,0.00,,CLR,0.00,VWS V14.01,2013-05-11 10:26:00,
2013-05-11 03:28:00,56.5,46.8,30.09,SW,222,0.0,0.0,70,0.00,,CLR,0.00,VWS V14.01,2013-05-11 10:28:00,
2013-05-11 03:30:00,56.5,47.6,30.08,SW,222,0.0,0.0,72,0.00,,CLR,0.00,VWS V14.01,2013-05-11 10:30:00,
2013-05-11 03:31:00,56.5,48.0,30.08,SW,222,0.0,0.0,73,0.00,,CLR,0.00,VWS V14.01,2013-05-11 10:31:00,
2013-05-11 03:33:00,56.3,47.4,30.08,SW,222,0.0,0.0,72,0.00,,CLR,0.00,VWS V14.01,2013-05-11 10:33:00,
2013-05-11 03:34:00,56.3,47.4,30.08,SW,222,0.0,0.0,72,0.00,,CLR,0.00,VWS V14.01,2013-05-11 10:34:00,
2013-05-11 03:35:00,56.3,47.8,30.08,SW,222,0.0,0.0,73,0.00,,CLR,0.00,VWS V14.01,2013-05-11 10:35:00,
2013-05-11 03:36:00,56.3,48.1,30.08,SW,222,0.0,0.0,74,0.00,,CLR,0.00,VWS V14.01,2013-05-11 10:36:00,
2013-05-11 03:38:00,56.2,48.0,30.08,SW,222,0.0,0.0,74,0.00,,CLR,0.00,VWS V14.01,2013-05-11 10:38:00,
2013-05-11 03:39:00,56.2,47.3,30.08,SW,222,0.0,0.0,72,0.00,,CLR,0.00,VWS V14.01,2013-05-11 10:39:00,
2013-05-11 03:40:00,56.2,47.3,30.08,SW,222,0.0,0.0,72,0.00,,CLR,0.00,VWS V14.01,2013-05-11 10:40:00,
2013-05-11 03:41:00,56.0,46.7,30.08,SW,222,0.0,0.0,71,0.00,,CLR,0.00,VWS V14.01,2013-05-11 10:41:00,
2013-05-11 03:43:00,56.0,46.4,30.08,SW,222,0.0,0.0,70,0.00,,CLR,0.00,VWS V14.01,2013-05-11 10:43:00,
2013-05-11 03:45:00,56.0,46.4,30.08,SW,222,0.0,0.0,70,0.00,,CLR,0.00,VWS V14.01,2013-05-11 10:45:00,
2013-05-11 03:46:00,55.9,46.7,30.08,SW,222,0.0,0.0,71,0.00,,CLR,0.00,VWS V14.01,2013-05-11 10:46:00,
2013-05-11 03:47:00,55.9,46.7,30.08,SW,222,0.0,0.0,71,0.00,,CLR,0.00,VWS V14.01,2013-05-11 10:47:00,
2013-05-11 03:48:00,55.9,47.0,30.08,SW,222,0.0,0.0,72,0.00,,CLR,0.00,VWS V14.01,2013-05-11 10:48:00,
2013-05-11 03:49:00,55.9,47.0,30.08,SW,222,0.0,0.0,72,0.00,,CLR,0.00,VWS V14.01,2013-05-11 10:49:00,
2013-05-11 03:51:00,55.7,45.7,30.08,SW,222,0.0,0.0,69,0.00,,CLR,0.00,VWS V14.01,2013-05-11 10:51:00,
2013-05-11 03:52:00,55.7,44.9,30.08,SW,222,1.0,2.0,67,0.00,,CLR,0.00,VWS V14.01,2013-05-11 10:52:00,
2013-05-11 03:54:00,55.6,44.4,30.08,SW,222,2.0,2.0,66,0.00,,CLR,0.00,VWS V14.01,2013-05-11 10:54:00,
2013-05-11 03:57:00,55.4,43.8,30.08,ESE,110,2.0,2.0,65,0.00,,CLR,0.00,VWS V14.01,2013-05-11 10:57:00,
2013-05-11 03:58:00,55.4,43.8,30.08,ESE,110,1.0,2.0,65,0.00,,CLR,0.00,VWS V14.01,2013-05-11 10:58:00,
2013-05-11 03:59:00,55.4,43.4,30.08,ESE,110,1.0,2.0,64,0.00,,CLR,0.00,VWS V14.01,2013-05-11 10:59:00,
2013-05-11 04:01:00,55.4,43.4,30.07,ESE,110,0.0,2.0,64,0.00,,CLR,0.00,VWS V14.01,2013-05-11 11:01:00,
2013-05-11 04:03:00,55.4,43.8,30.07,ESE,110,1.0,2.0,65,0.00,,CLR,0.00,VWS V14.01,2013-05-11 11:03:00,
2013-05-11 04:04:00,55.3,43.8,30.07,ESE,110,2.0,2.0,65,0.00,,CLR,0.00,VWS V14.01,2013-05-11 11:04:00,
2013-05-11 04:05:00,55.3,43.8,30.07,ESE,110,2.0,2.0,65,0.00,,CLR,0.00,VWS V14.01,2013-05-11 11:05:00,
2013-05-11 04:08:00,55.3,44.2,30.07,ESE,110,2.0,3.0,66,0.00,,CLR,0.00,VWS V14.01,2013-05-11 11:08:00,
2013-05-11 04:09:00,55.3,44.5,30.07,ESE,110,2.0,3.0,67,0.00,,CLR,0.00,VWS V14.01,2013-05-11 11:09:00,
2013-05-11 04:11:00,55.3,44.5,30.07,ESE,110,3.0,3.0,67,0.00,,CLR,0.00,VWS V14.01,2013-05-11 11:11:00,
2013-05-11 04:12:00,55.3,44.2,30.07,ESE,110,2.0,3.0,66,0.00,,CLR,0.00,VWS V14.01,2013-05-11 11:12:00,
2013-05-11 04:15:00,55.3,44.2,30.07,ESE,110,2.0,3.0,66,0.00,,CLR,0.00,VWS V14.01,2013-05-11 11:15:00,
2013-05-11 04:16:00,55.3,44.5,30.07,ESE,110,0.0,3.0,67,0.00,,CLR,0.00,VWS V14.01,2013-05-11 11:16:00,
2013-05-11 04:17:00,55.3,44.5,30.07,ESE,110,0.0,1.0,67,0.00,,CLR,0.00,VWS V14.01,2013-05-11 11:17:00,
2013-05-11 04:19:00,55.3,44.5,30.07,ESE,110,0.0,1.0,67,0.00,,CLR,0.00,VWS V14.01,2013-05-11 11:19:00,
2013-05-11 04:21:00,55.3,44.5,30.07,ESE,110,1.0,1.0,67,0.00,,CLR,0.00,VWS V14.01,2013-05-11 11:21:00,
2013-05-11 04:22:00,55.3,44.9,30.07,ESE,110,2.0,2.0,68,0.00,,CLR,0.00,VWS V14.01,2013-05-11 11:22:00,
2013-05-11 04:23:00,55.3,44.9,30.07,ESE,110,2.0,3.0,68,0.00,,CLR,0.00,VWS V14.01,2013-05-11 11:23:00,
2013-05-11 04:25:00,55.4,45.0,30.07,ESE,110,1.0,3.0,68,0.00,,CLR,0.00,VWS V14.01,2013-05-11 11:25:00,
2013-05-11 04:27:00,55.4,45.4,30.07,ESE,110,0.0,0.0,69,0.00,,CLR,0.00,VWS V14.01,2013-05-11 11:27:00,
2013-05-11 04:29:00,55.4,45.8,30.07,ESE,110,0.0,0.0,70,0.00,,CLR,0.00,VWS V14.01,2013-05-11 11:29:00,
2013-05-11 04:31:00,55.4,45.8,30.05,ESE,110,0.0,0.0,70,0.00,,CLR,0.00,VWS V14.01,2013-05-11 11:31:00,
2013-05-11 04:32:00,55.4,46.2,30.05,ESE,110,0.0,0.0,71,0.00,,CLR,0.00,VWS V14.01,2013-05-11 11:32:00,
2013-05-11 04:36:00,55.3,46.4,30.05,ESE,110,0.0,0.0,72,0.00,,CLR,0.00,VWS V14.01,2013-05-11 11:36:00,
2013-05-11 04:39:00,55.3,46.8,30.05,ESE,110,0.0,0.0,73,0.00,,CLR,0.00,VWS V14.01,2013-05-11 11:39:00,
2013-05-11 04:41:00,55.3,46.8,30.05,ESE,110,0.0,0.0,73,0.00,,CLR,0.00,VWS V14.01,2013-05-11 11:41:00,
2013-05-11 04:43:00,55.1,46.6,30.05,ESE,110,0.0,0.0,73,0.00,,CLR,0.00,VWS V14.01,2013-05-11 11:43:00,
2013-05-11 04:46:00,55.3,47.9,30.06,ESE,110,0.0,0.0,76,0.00,,CLR,0.00,VWS V14.01,2013-05-11 11:46:00,
2013-05-11 04:48:00,55.1,48.0,30.06,ESE,110,0.0,0.0,77,0.00,,CLR,0.00,VWS V14.01,2013-05-11 11:48:00,
2013-05-11 04:51:00,55.1,48.0,30.06,South,174,0.0,3.0,77,0.00,,CLR,0.00,VWS V14.01,2013-05-11 11:51:00,
2013-05-11 04:53:00,55.1,49.0,30.06,WNW,289,2.0,6.0,80,0.00,,CLR,0.00,VWS V14.01,2013-05-11 11:53:00,
2013-05-11 04:56:00,55.1,49.4,30.06,WNW,288,2.0,6.0,81,0.00,,CLR,0.00,VWS V14.01,2013-05-11 11:56:00,
2013-05-11 04:57:00,55.1,49.4,30.06,NW,308,1.0,5.0,81,0.00,,CLR,0.00,VWS V14.01,2013-05-11 11:57:00,
2013-05-11 04:59:00,55.0,49.3,30.06,WNW,302,2.0,6.0,81,0.00,,CLR,0.00,VWS V14.01,2013-05-11 11:59:00,
2013-05-11 05:01:00,55.0,49.3,30.07,NW,305,6.0,8.0,81,0.00,,CLR,0.00,VWS V14.01,2013-05-11 12:01:00,
2013-05-11 05:04:00,54.8,48.8,30.07,West,272,6.0,7.0,80,0.00,,CLR,0.00,VWS V14.01,2013-05-11 12:04:00,
2013-05-11 05:05:00,54.8,48.4,30.07,WNW,301,0.0,8.0,79,0.00,,CLR,0.00,VWS V14.01,2013-05-11 12:05:00,
2013-05-11 05:07:00,54.8,48.1,30.07,NW,304,3.0,6.0,78,0.00,,CLR,0.00,VWS V14.01,2013-05-11 12:07:00,
2013-05-11 05:08:00,54.8,48.1,30.07,NW,304,0.0,6.0,78,0.00,,CLR,0.00,VWS V14.01,2013-05-11 12:08:00,
2013-05-11 05:13:00,54.8,47.4,30.07,WNW,291,0.0,6.0,76,0.00,,CLR,0.00,VWS V14.01,2013-05-11 12:13:00,
2013-05-11 05:14:00,54.8,47.4,30.07,WNW,284,2.0,6.0,76,0.00,,CLR,0.00,VWS V14.01,2013-05-11 12:14:00,
2013-05-11 05:16:00,54.8,47.0,30.07,WNW,284,0.0,6.0,75,0.00,,CLR,0.00,VWS V14.01,2013-05-11 12:16:00,
2013-05-11 05:17:00,54.8,47.0,30.07,WNW,284,0.0,3.0,75,0.00,,CLR,0.00,VWS V14.01,2013-05-11 12:17:00,
2013-05-11 05:18:00,54.8,47.0,30.07,WNW,284,1.0,3.0,75,0.00,,CLR,0.00,VWS V14.01,2013-05-11 12:18:00,
2013-05-11 05:21:00,54.8,46.7,30.07,NW,311,0.0,1.0,74,0.00,,CLR,0.00,VWS V14.01,2013-05-11 12:21:00,
2013-05-11 05:23:00,55.0,46.9,30.07,WNW,294,0.0,2.0,74,0.00,,CLR,0.00,VWS V14.01,2013-05-11 12:23:00,
2013-05-11 05:26:00,55.0,46.9,30.07,West,280,2.0,6.0,74,0.00,,CLR,0.00,VWS V14.01,2013-05-11 12:26:00,
2013-05-11 05:27:00,55.0,46.9,30.07,West,280,0.0,2.0,74,0.00,,CLR,0.00,VWS V14.01,2013-05-11 12:27:00,
2013-05-11 05:28:00,55.0,46.9,30.07,West,280,2.0,3.0,74,0.00,,CLR,0.00,VWS V14.01,2013-05-11 12:28:00,
2013-05-11 05:31:00,55.0,46.5,30.07,West,280,2.0,3.0,73,0.00,,CLR,0.00,VWS V14.01,2013-05-11 12:31:00,
2013-05-11 05:32:00,55.0,46.5,30.07,West,280,0.0,2.0,73,0.00,,CLR,0.00,VWS V14.01,2013-05-11 12:32:00,
2013-05-11 05:34:00,55.0,46.5,30.07,West,280,1.0,3.0,73,0.00,,CLR,0.00,VWS V14.01,2013-05-11 12:34:00,
2013-05-11 05:36:00,55.0,46.2,30.07,West,280,0.0,3.0,72,0.00,,CLR,0.00,VWS V14.01,2013-05-11 12:36:00,
2013-05-11 05:39:00,55.0,46.2,30.07,West,280,0.0,0.0,72,0.00,,CLR,0.00,VWS V14.01,2013-05-11 12:39:00,
2013-05-11 05:41:00,55.0,46.5,30.07,West,280,0.0,1.0,73,0.00,,CLR,0.00,VWS V14.01,2013-05-11 12:41:00,
2013-05-11 05:46:00,55.0,45.8,30.07,West,280,0.0,1.0,71,0.00,,CLR,0.00,VWS V14.01,2013-05-11 12:46:00,
2013-05-11 05:48:00,55.0,45.4,30.07,West,280,1.0,2.0,70,0.00,,CLR,0.00,VWS V14.01,2013-05-11 12:48:00,
2013-05-11 05:49:00,54.8,45.2,30.07,West,280,0.0,2.0,70,0.00,,CLR,0.00,VWS V14.01,2013-05-11 12:49:00,
2013-05-11 05:51:00,54.8,45.2,30.07,West,280,0.0,2.0,70,0.00,,CLR,0.00,VWS V14.01,2013-05-11 12:51:00,
2013-05-11 05:57:00,54.8,45.6,30.07,West,280,0.0,0.0,71,0.00,,CLR,0.00,VWS V14.01,2013-05-11 12:57:00,
2013-05-11 05:58:00,54.8,45.6,30.07,West,280,0.0,0.0,71,0.00,,CLR,0.00,VWS V14.01,2013-05-11 12:58:00,
2013-05-11 06:01:00,54.8,46.0,30.06,West,280,0.0,0.0,72,0.00,,CLR,0.00,VWS V14.01,2013-05-11 13:01:00,
2013-05-11 06:02:00,54.8,46.0,30.06,West,280,0.0,0.0,72,0.00,,CLR,0.00,VWS V14.01,2013-05-11 13:02:00,
2013-05-11 06:07:00,54.8,46.3,30.06,West,280,0.0,0.0,73,0.00,,CLR,0.00,VWS V14.01,2013-05-11 13:07:00,
2013-05-11 06:08:00,54.8,46.3,30.06,West,280,0.0,0.0,73,0.00,,CLR,0.00,VWS V14.01,2013-05-11 13:08:00,
2013-05-11 06:10:00,54.7,46.2,30.06,West,280,0.0,0.0,73,0.00,,CLR,0.00,VWS V14.01,2013-05-11 13:10:00,
2013-05-11 06:15:00,54.7,46.2,30.06,West,280,0.0,0.0,73,0.00,,CLR,0.00,VWS V14.01,2013-05-11 13:15:00,
2013-05-11 06:16:00,54.5,46.0,30.07,West,280,0.0,0.0,73,0.00,,CLR,0.00,VWS V14.01,2013-05-11 13:16:00,
2013-05-11 06:17:00,54.5,46.0,30.07,West,280,0.0,0.0,73,0.00,,CLR,0.00,VWS V14.01,2013-05-11 13:17:00,
2013-05-11 06:21:00,54.5,47.1,30.07,West,280,0.0,0.0,76,0.00,,CLR,0.00,VWS V14.01,2013-05-11 13:21:00,
2013-05-11 06:22:00,54.5,47.1,30.07,West,280,0.0,0.0,76,0.00,,CLR,0.00,VWS V14.01,2013-05-11 13:22:00,
2013-05-11 06:23:00,54.4,47.3,30.07,West,280,0.0,0.0,77,0.00,,CLR,0.00,VWS V14.01,2013-05-11 13:23:00,
2013-05-11 06:28:00,54.4,47.7,30.07,West,280,0.0,0.0,78,0.00,,CLR,0.00,VWS V14.01,2013-05-11 13:28:00,
2013-05-11 06:29:00,54.2,47.5,30.07,West,280,0.0,0.0,78,0.00,,CLR,0.00,VWS V14.01,2013-05-11 13:29:00,
2013-05-11 06:30:00,54.2,47.5,30.07,West,280,0.0,0.0,78,0.00,,CLR,0.00,VWS V14.01,2013-05-11 13:30:00,
2013-05-11 06:31:00,54.2,47.5,30.08,West,280,0.0,0.0,78,0.00,,CLR,0.00,VWS V14.01,2013-05-11 13:31:00,
2013-05-11 06:33:00,54.2,47.5,30.08,West,280,0.0,0.0,78,0.00,,CLR,0.00,VWS V14.01,2013-05-11 13:33:00,
2013-05-11 06:34:00,54.2,47.5,30.08,West,280,0.0,0.0,78,0.00,,CLR,0.00,VWS V14.01,2013-05-11 13:34:00,
2013-05-11 06:36:00,54.1,47.7,30.08,West,280,0.0,0.0,79,0.00,,CLR,0.00,VWS V14.01,2013-05-11 13:36:00,
2013-05-11 06:39:00,54.1,47.7,30.08,West,280,0.0,0.0,79,0.00,,CLR,0.00,VWS V14.01,2013-05-11 13:39:00,
2013-05-11 06:40:00,54.1,47.7,30.08,West,280,0.0,0.0,79,0.00,,CLR,0.00,VWS V14.01,2013-05-11 13:40:00,
2013-05-11 06:42:00,54.1,47.7,30.08,West,280,0.0,0.0,79,0.00,,CLR,0.00,VWS V14.01,2013-05-11 13:42:00,
2013-05-11 06:43:00,54.1,47.7,30.08,West,280,0.0,0.0,79,0.00,,CLR,0.00,VWS V14.01,2013-05-11 13:43:00,
2013-05-11 06:44:00,54.1,47.7,30.08,West,280,0.0,0.0,79,0.00,,CLR,0.00,VWS V14.01,2013-05-11 13:44:00,
2013-05-11 06:45:00,54.1,47.7,30.08,West,280,0.0,0.0,79,0.00,,CLR,0.00,VWS V14.01,2013-05-11 13:45:00,
2013-05-11 06:47:00,54.1,47.4,30.07,West,280,1.0,1.0,78,0.00,,CLR,0.00,VWS V14.01,2013-05-11 13:47:00,
2013-05-11 06:49:00,53.9,46.9,30.07,West,280,1.0,2.0,77,0.00,,CLR,0.00,VWS V14.01,2013-05-11 13:49:00,
2013-05-11 06:50:00,53.9,46.9,30.07,West,280,0.0,2.0,77,0.00,,CLR,0.00,VWS V14.01,2013-05-11 13:50:00,
2013-05-11 06:51:00,53.9,46.9,30.07,West,280,0.0,2.0,77,0.00,,CLR,0.00,VWS V14.01,2013-05-11 13:51:00,
2013-05-11 06:52:00,53.9,46.9,30.07,West,280,0.0,0.0,77,0.00,,CLR,0.00,VWS V14.01,2013-05-11 13:52:00,
2013-05-11 06:55:00,53.9,46.9,30.07,West,280,0.0,2.0,77,0.00,,CLR,0.00,VWS V14.01,2013-05-11 13:55:00,
2013-05-11 06:57:00,54.1,47.1,30.07,West,280,0.0,0.0,77,0.00,,CLR,0.00,VWS V14.01,2013-05-11 13:57:00,
2013-05-11 06:58:00,54.1,47.1,30.07,West,280,0.0,0.0,77,0.00,,CLR,0.00,VWS V14.01,2013-05-11 13:58:00,
2013-05-11 07:01:00,54.1,47.4,30.06,West,280,2.0,2.0,78,0.00,,CLR,0.00,VWS V14.01,2013-05-11 14:01:00,
2013-05-11 07:02:00,54.1,47.4,30.06,NNW,343,3.0,3.0,78,0.00,,CLR,0.00,VWS V14.01,2013-05-11 14:02:00,
2013-05-11 07:03:00,54.1,47.4,30.06,NNW,344,2.0,3.0,78,0.00,,CLR,0.00,VWS V14.01,2013-05-11 14:03:00,
2013-05-11 07:07:00,54.2,46.8,30.06,NNW,344,0.0,0.0,76,0.00,,CLR,0.00,VWS V14.01,2013-05-11 14:07:00,
2013-05-11 07:08:00,54.2,47.2,30.06,NNW,344,0.0,0.0,77,0.00,,CLR,0.00,VWS V14.01,2013-05-11 14:08:00,
2013-05-11 07:09:00,54.2,47.2,30.06,NNW,344,0.0,0.0,77,0.00,,CLR,0.00,VWS V14.01,2013-05-11 14:09:00,
2013-05-11 07:11:00,54.2,46.5,30.06,NNW,344,0.0,0.0,75,0.00,,CLR,0.00,VWS V14.01,2013-05-11 14:11:00,
2013-05-11 07:13:00,54.2,46.5,30.06,NNW,344,0.0,0.0,75,0.00,,CLR,0.00,VWS V14.01,2013-05-11 14:13:00,
2013-05-11 07:14:00,54.4,46.7,30.06,NNW,344,0.0,0.0,75,0.00,,CLR,0.00,VWS V14.01,2013-05-11 14:14:00,
2013-05-11 07:15:00,54.4,46.3,30.06,NNW,344,0.0,0.0,74,0.00,,CLR,0.00,VWS V14.01,2013-05-11 14:15:00,
2013-05-11 07:16:00,54.4,46.3,30.07,NNW,344,0.0,0.0,74,0.00,,CLR,0.00,VWS V14.01,2013-05-11 14:16:00,
2013-05-11 07:17:00,54.4,46.3,30.07,NNW,344,0.0,0.0,74,0.00,,CLR,0.00,VWS V14.01,2013-05-11 14:17:00,
2013-05-11 07:21:00,54.5,46.4,30.07,NNW,344,0.0,0.0,74,0.00,,CLR,0.00,VWS V14.01,2013-05-11 14:21:00,
2013-05-11 07:22:00,54.5,46.8,30.07,NNW,344,0.0,0.0,75,0.00,,CLR,0.00,VWS V14.01,2013-05-11 14:22:00,
2013-05-11 07:23:00,54.7,46.9,30.07,NNW,344,0.0,0.0,75,0.00,,CLR,0.00,VWS V14.01,2013-05-11 14:23:00,
2013-05-11 07:24:00,54.7,46.9,30.07,NNW,344,0.0,0.0,75,0.00,,CLR,0.00,VWS V14.01,2013-05-11 14:24:00,
2013-05-11 07:26:00,54.7,46.9,30.07,NNW,344,0.0,0.0,75,0.00,,CLR,0.00,VWS V14.01,2013-05-11 14:26:00,
2013-05-11 07:28:00,54.8,46.7,30.07,NNW,344,0.0,0.0,74,0.00,,CLR,0.00,VWS V14.01,2013-05-11 14:28:00,
2013-05-11 07:30:00,54.8,46.7,30.07,NNW,344,0.0,0.0,74,0.00,,CLR,0.00,VWS V14.01,2013-05-11 14:30:00,
2013-05-11 07:31:00,55.0,46.9,30.07,NNW,344,0.0,0.0,74,0.00,,CLR,0.00,VWS V14.01,2013-05-11 14:31:00,
2013-05-11 07:32:00,55.0,47.2,30.07,NNW,344,0.0,0.0,75,0.00,,CLR,0.00,VWS V14.01,2013-05-11 14:32:00,
2013-05-11 07:33:00,55.1,47.3,30.07,NNW,344,0.0,0.0,75,0.00,,CLR,0.00,VWS V14.01,2013-05-11 14:33:00,
2013-05-11 07:36:00,55.3,47.9,30.07,NNW,344,0.0,0.0,76,0.00,,CLR,0.00,VWS V14.01,2013-05-11 14:36:00,
2013-05-11 07:37:00,55.3,47.9,30.07,NNW,344,0.0,0.0,76,0.00,,CLR,0.00,VWS V14.01,2013-05-11 14:37:00,
2013-05-11 07:40:00,55.4,48.0,30.07,NNW,344,0.0,0.0,76,0.00,,CLR,0.00,VWS V14.01,2013-05-11 14:40:00,
2013-05-11 07:41:00,55.4,48.0,30.07,NNW,344,0.0,0.0,76,0.00,,CLR,0.00,VWS V14.01,2013-05-11 14:41:00,
2013-05-11 07:42:00,55.4,48.0,30.07,NNW,344,0.0,0.0,76,0.00,,CLR,0.00,VWS V14.01,2013-05-11 14:42:00,
2013-05-11 07:43:00,55.6,48.2,30.07,NNW,344,0.0,0.0,76,0.00,,CLR,0.00,VWS V14.01,2013-05-11 14:43:00,
2013-05-11 07:45:00,55.6,48.5,30.07,NNW,344,0.0,2.0,77,0.00,,CLR,0.00,VWS V14.01,2013-05-11 14:45:00,
2013-05-11 07:47:00,55.7,48.6,30.07,NNW,344,0.0,0.0,77,0.00,,CLR,0.00,VWS V14.01,2013-05-11 14:47:00,
2013-05-11 07:48:00,55.7,48.6,30.07,NNW,344,0.0,0.0,77,0.00,,CLR,0.00,VWS V14.01,2013-05-11 14:48:00,
2013-05-11 07:50:00,55.7,48.6,30.07,NNW,344,0.0,0.0,77,0.00,,CLR,0.00,VWS V14.01,2013-05-11 14:50:00,
2013-05-11 07:51:00,55.7,48.6,30.07,NNW,344,0.0,0.0,77,0.00,,CLR,0.00,VWS V14.01,2013-05-11 14:51:00,
2013-05-11 07:52:00,55.7,48.6,30.07,NNW,344,0.0,0.0,77,0.00,,CLR,0.00,VWS V14.01,2013-05-11 14:52:00,
2013-05-11 07:54:00,55.9,48.8,30.07,NNW,344,0.0,0.0,77,0.00,,CLR,0.00,VWS V14.01,2013-05-11 14:54:00,
2013-05-11 07:56:00,55.9,48.8,30.07,WSW,247,1.0,1.0,77,0.00,,CLR,0.00,VWS V14.01,2013-05-11 14:56:00,
2013-05-11 07:59:00,56.0,48.5,30.07,WSW,250,0.0,0.0,76,0.00,,CLR,0.00,VWS V14.01,2013-05-11 14:59:00,
2013-05-11 08:00:00,56.0,48.5,30.07,WSW,250,0.0,0.0,76,0.00,,CLR,0.00,VWS V14.01,2013-05-11 15:00:00,
2013-05-11 08:01:00,56.0,48.5,30.07,WSW,250,0.0,0.0,76,0.00,,FEW120,0.00,VWS V14.01,2013-05-11 15:01:00,
2013-05-11 08:02:00,56.0,48.5,30.07,WSW,250,0.0,0.0,76,0.00,,FEW120,0.00,VWS V14.01,2013-05-11 15:02:00,
2013-05-11 08:05:00,56.2,48.8,30.07,WSW,250,0.0,0.0,76,0.00,,FEW120,0.00,VWS V14.01,2013-05-11 15:05:00,
2013-05-11 08:06:00,56.3,48.5,30.07,WSW,250,0.0,0.0,75,0.00,,FEW120,0.00,VWS V14.01,2013-05-11 15:06:00,
2013-05-11 08:08:00,56.3,48.5,30.07,WSW,250,0.0,0.0,75,0.00,,FEW120,0.00,VWS V14.01,2013-05-11 15:08:00,
2013-05-11 08:10:00,56.3,48.5,30.07,WSW,250,0.0,0.0,75,0.00,,FEW120,0.00,VWS V14.01,2013-05-11 15:10:00,
2013-05-11 08:12:00,56.5,48.7,30.07,WSW,250,0.0,0.0,75,0.00,,FEW120,0.00,VWS V14.01,2013-05-11 15:12:00,
2013-05-11 08:15:00,56.6,48.4,30.07,WSW,250,0.0,0.0,74,0.00,,FEW120,0.00,VWS V14.01,2013-05-11 15:15:00,
2013-05-11 08:16:00,56.6,48.4,30.08,WSW,250,0.0,0.0,74,0.00,,FEW120,0.00,VWS V14.01,2013-05-11 15:16:00,
2013-05-11 08:17:00,56.7,48.5,30.08,WSW,250,0.0,0.0,74,0.00,,FEW120,0.00,VWS V14.01,2013-05-11 15:17:00,
2013-05-11 08:21:00,56.9,48.3,30.08,WSW,250,0.0,0.0,73,0.00,,FEW120,0.00,VWS V14.01,2013-05-11 15:21:00,
2013-05-11 08:23:00,56.9,48.3,30.08,WSW,250,0.0,0.0,73,0.00,,FEW120,0.00,VWS V14.01,2013-05-11 15:23:00,
2013-05-11 08:26:00,57.2,47.5,30.08,WSW,250,0.0,0.0,70,0.00,,FEW120,0.00,VWS V14.01,2013-05-11 15:26:00,
2013-05-11 08:27:00,57.2,47.5,30.08,South,174,0.0,1.0,70,0.00,,FEW120,0.00,VWS V14.01,2013-05-11 15:27:00,
2013-05-11 08:30:00,57.2,47.1,30.08,South,174,0.0,1.0,69,0.00,,FEW120,0.00,VWS V14.01,2013-05-11 15:30:00,
2013-05-11 08:32:00,57.3,48.0,30.08,South,174,0.0,0.0,71,0.00,,FEW120,0.00,VWS V14.01,2013-05-11 15:32:00,
2013-05-11 08:33:00,57.3,48.0,30.08,ESE,121,1.0,1.0,71,0.00,,FEW120,0.00,VWS V14.01,2013-05-11 15:33:00,
2013-05-11 08:34:00,57.5,47.8,30.08,ESE,121,0.0,1.0,70,0.00,,FEW120,0.00,VWS V14.01,2013-05-11 15:34:00,
2013-05-11 08:35:00,57.5,47.8,30.08,ESE,121,0.0,1.0,70,0.00,,FEW120,0.00,VWS V14.01,2013-05-11 15:35:00,
2013-05-11 08:36:00,57.5,48.2,30.08,ESE,121,0.0,1.0,71,0.00,,FEW120,0.00,VWS V14.01,2013-05-11 15:36:00,
2013-05-11 08:38:00,57.6,48.3,30.08,ESE,121,0.0,0.0,71,0.00,,FEW120,0.00,VWS V14.01,2013-05-11 15:38:00,
2013-05-11 08:39:00,57.6,48.3,30.08,ESE,121,0.0,0.0,71,0.00,,FEW120,0.00,VWS V14.01,2013-05-11 15:39:00,
2013-05-11 08:40:00,57.6,47.9,30.08,ESE,121,0.0,0.0,70,0.00,,FEW120,0.00,VWS V14.01,2013-05-11 15:40:00,
2013-05-11 08:41:00,57.6,47.9,30.08,ESE,121,0.0,0.0,70,0.00,,FEW120,0.00,VWS V14.01,2013-05-11 15:41:00,
2013-05-11 08:44:00,57.8,47.7,30.08,ESE,121,1.0,2.0,69,0.00,,FEW120,0.00,VWS V14.01,2013-05-11 15:44:00,
2013-05-11 08:45:00,57.8,47.3,30.08,ESE,121,2.0,2.0,68,0.00,,FEW120,0.00,VWS V14.01,2013-05-11 15:45:00,
2013-05-11 08:46:00,57.8,47.3,30.08,ESE,121,1.0,2.0,68,0.00,,FEW120,0.00,VWS V14.01,2013-05-11 15:46:00,
2013-05-11 08:50:00,58.0,47.5,30.08,East,83,0.0,5.0,68,0.00,,FEW120,0.00,VWS V14.01,2013-05-11 15:50:00,
2013-05-11 08:51:00,58.0,47.9,30.08,East,83,2.0,2.0,69,0.00,,FEW120,0.00,VWS V14.01,2013-05-11 15:51:00,
2013-05-11 08:56:00,58.1,46.8,30.08,SE,130,2.0,3.0,66,0.00,,FEW120,0.00,VWS V14.01,2013-05-11 15:56:00,
2013-05-11 08:57:00,58.1,46.8,30.08,SE,130,2.0,2.0,66,0.00,,FEW120,0.00,VWS V14.01,2013-05-11 15:57:00,
2013-05-11 09:01:00,58.3,47.4,30.07,ENE,59,0.0,2.0,67,0.00,,FEW120,0.00,VWS V14.01,2013-05-11 16:01:00,
2013-05-11 09:02:00,58.3,47.4,30.07,ENE,58,3.0,3.0,67,0.00,,FEW120,0.00,VWS V14.01,2013-05-11 16:02:00,
2013-05-11 09:03:00,58.3,47.4,30.07,ENE,58,3.0,3.0,67,0.00,,FEW120,0.00,VWS V14.01,2013-05-11 16:03:00,
2013-05-11 09:05:00,58.4,47.5,30.07,East,90,2.0,3.0,67,0.00,,FEW120,0.00,VWS V14.01,2013-05-11 16:05:00,
2013-05-11 09:06:00,58.4,47.9,30.07,East,90,3.0,3.0,68,0.00,,FEW120,0.00,VWS V14.01,2013-05-11 16:06:00,
2013-05-11 09:12:00,58.6,47.7,30.07,ESE,104,3.0,3.0,67,0.00,,FEW120,0.00,VWS V14.01,2013-05-11 16:12:00,
2013-05-11 09:13:00,58.7,47.8,30.07,East,95,2.0,4.0,67,0.00,,FEW120,0.00,VWS V14.01,2013-05-11 16:13:00,
2013-05-11 09:15:00,58.7,47.4,30.06,East,97,2.0,5.0,66,0.00,,FEW120,0.00,VWS V14.01,2013-05-11 16:15:00,
2013-05-11 09:16:00,58.9,48.0,30.06,East,97,1.0,1.0,67,0.00,,FEW120,0.00,VWS V14.01,2013-05-11 16:16:00,
2013-05-11 09:17:00,58.9,48.0,30.06,East,97,1.0,2.0,67,0.00,,FEW120,0.00,VWS V14.01,2013-05-11 16:17:00,
2013-05-11 09:18:00,58.9,47.6,30.06,East,95,3.0,3.0,66,0.00,,FEW120,0.00,VWS V14.01,2013-05-11 16:18:00,
2013-05-11 09:20:00,59.2,47.5,30.06,East,93,2.0,3.0,65,0.00,,FEW120,0.00,VWS V14.01,2013-05-11 16:20:00,
2013-05-11 09:21:00,59.2,47.9,30.06,East,93,0.0,1.0,66,0.00,,FEW120,0.00,VWS V14.01,2013-05-11 16:21:00,
2013-05-11 09:24:00,59.6,47.4,30.06,East,88,2.0,3.0,64,0.00,,FEW120,0.00,VWS V14.01,2013-05-11 16:24:00,
2013-05-11 09:26:00,59.6,46.6,30.06,East,88,0.0,1.0,62,0.00,,FEW120,0.00,VWS V14.01,2013-05-11 16:26:00,
2013-05-11 09:27:00,59.8,46.8,30.06,East,88,1.0,3.0,62,0.00,,FEW120,0.00,VWS V14.01,2013-05-11 16:27:00,
2013-05-11 09:29:00,59.9,46.9,30.06,East,88,1.0,3.0,62,0.00,,FEW120,0.00,VWS V14.01,2013-05-11 16:29:00,
2013-05-11 09:36:00,60.5,46.6,30.05,ESE,113,1.0,2.0,60,0.00,,FEW120,0.00,VWS V14.01,2013-05-11 16:36:00,
2013-05-11 09:38:00,60.7,46.8,30.05,ESE,113,2.0,3.0,60,0.00,,FEW120,0.00,VWS V14.01,2013-05-11 16:38:00,
2013-05-11 09:41:00,61.2,47.2,30.05,ESE,113,0.0,3.0,60,0.00,,FEW120,0.00,VWS V14.01,2013-05-11 16:41:00,
2013-05-11 09:42:00,61.5,47.9,30.05,ESE,113,0.0,0.0,61,0.00,,FEW120,0.00,VWS V14.01,2013-05-11 16:42:00,
2013-05-11 09:43:00,61.8,47.8,30.05,ESE,113,1.0,1.0,60,0.00,,FEW120,0.00,VWS V14.01,2013-05-11 16:43:00,
2013-05-11 09:46:00,62.1,48.1,30.04,SE,145,0.0,2.0,60,0.00,,FEW120,0.00,VWS V14.01,2013-05-11 16:46:00,
2013-05-11 09:48:00,62.6,48.5,30.04,SE,144,2.0,2.0,60,0.00,,FEW120,0.00,VWS V14.01,2013-05-11 16:48:00,
2013-05-11 09:49:00,62.7,48.6,30.04,SE,144,0.0,2.0,60,0.00,,FEW120,0.00,VWS V14.01,2013-05-11 16:49:00,
2013-05-11 09:53:00,63.2,48.7,30.04,SE,138,0.0,2.0,59,0.00,,FEW120,0.00,VWS V14.01,2013-05-11 16:53:00,
2013-05-11 09:54:00,63.2,48.7,30.04,SE,138,0.0,2.0,59,0.00,,FEW120,0.00,VWS V14.01,2013-05-11 16:54:00,
2013-05-11 09:56:00,63.9,49.3,30.04,SSW,202,1.0,2.0,59,0.00,,FEW120,0.00,VWS V14.01,2013-05-11 16:56:00,
2013-05-11 09:59:00,64.7,50.5,30.04,SSW,202,0.0,1.0,60,0.00,,FEW120,0.00,VWS V14.01,2013-05-11 16:59:00,
2013-05-11 10:01:00,65.0,50.8,30.04,SSW,202,0.0,1.0,60,0.00,,CLR,0.00,VWS V14.01,2013-05-11 17:01:00,
2013-05-11 10:05:00,65.5,49.9,30.04,SSW,205,0.0,3.0,57,0.00,,CLR,0.00,VWS V14.01,2013-05-11 17:05:00,
2013-05-11 10:06:00,65.6,50.0,30.04,SSW,205,0.0,3.0,57,0.00,,CLR,0.00,VWS V14.01,2013-05-11 17:06:00,
2013-05-11 10:07:00,66.0,50.8,30.04,SSW,205,2.0,2.0,58,0.00,,CLR,0.00,VWS V14.01,2013-05-11 17:07:00,
2013-05-11 10:08:00,66.3,51.1,30.04,SSW,205,0.0,2.0,58,0.00,,CLR,0.00,VWS V14.01,2013-05-11 17:08:00,
2013-05-11 10:09:00,66.4,51.2,30.04,SSW,205,0.0,2.0,58,0.00,,CLR,0.00,VWS V14.01,2013-05-11 17:09:00,
2013-05-11 10:11:00,66.9,51.2,30.04,SSW,205,1.0,3.0,57,0.00,,CLR,0.00,VWS V14.01,2013-05-11 17:11:00,
2013-05-11 10:13:00,67.4,51.7,30.04,SSW,205,0.0,1.0,57,0.00,,CLR,0.00,VWS V14.01,2013-05-11 17:13:00,
2013-05-11 10:14:00,67.6,51.8,30.04,SSW,205,2.0,4.0,57,0.00,,CLR,0.00,VWS V14.01,2013-05-11 17:14:00,
2013-05-11 10:16:00,67.8,50.6,30.03,SSW,205,2.0,4.0,54,0.00,,CLR,0.00,VWS V14.01,2013-05-11 17:16:00,
2013-05-11 10:17:00,67.8,50.6,30.03,SSW,206,1.0,3.0,54,0.00,,CLR,0.00,VWS V14.01,2013-05-11 17:17:00,
2013-05-11 10:21:00,68.4,51.1,30.03,SSW,206,2.0,3.0,54,0.00,,CLR,0.00,VWS V14.01,2013-05-11 17:21:00,
2013-05-11 10:23:00,68.6,51.3,30.03,SSW,206,0.0,2.0,54,0.00,,CLR,0.00,VWS V14.01,2013-05-11 17:23:00,
2013-05-11 10:24:00,68.8,51.5,30.03,SSW,206,1.0,2.0,54,0.00,,CLR,0.00,VWS V14.01,2013-05-11 17:24:00,
2013-05-11 10:26:00,68.8,51.0,30.03,SSW,206,0.0,5.0,53,0.00,,CLR,0.00,VWS V14.01,2013-05-11 17:26:00,
2013-05-11 10:30:00,69.1,51.3,30.03,SSW,206,0.0,2.0,53,0.00,,CLR,0.00,VWS V14.01,2013-05-11 17:30:00,
2013-05-11 10:31:00,69.3,51.5,30.03,SSW,206,2.0,5.0,53,0.00,,CLR,0.00,VWS V14.01,2013-05-11 17:31:00,
2013-05-11 10:33:00,69.3,50.4,30.03,SSW,208,1.0,3.0,51,0.00,,CLR,0.00,VWS V14.01,2013-05-11 17:33:00,
2013-05-11 10:35:00,69.4,51.0,30.03,WNW,302,5.0,6.0,52,0.00,,CLR,0.00,VWS V14.01,2013-05-11 17:35:00,
2013-05-11 10:36:00,69.6,50.7,30.03,NNW,328,6.0,6.0,51,0.00,,CLR,0.00,VWS V14.01,2013-05-11 17:36:00,
2013-05-11 10:40:00,69.8,50.9,30.03,NW,319,0.0,7.0,51,0.00,,CLR,0.00,VWS V14.01,2013-05-11 17:40:00,
2013-05-11 10:41:00,69.8,51.4,30.03,NW,312,6.0,7.0,52,0.00,,CLR,0.00,VWS V14.01,2013-05-11 17:41:00,
2013-05-11 10:42:00,69.8,50.9,30.03,WNW,284,6.0,6.0,51,0.00,,CLR,0.00,VWS V14.01,2013-05-11 17:42:00,
2013-05-11 10:43:00,69.6,50.2,30.03,NW,308,2.0,8.0,50,0.00,,CLR,0.00,VWS V14.01,2013-05-11 17:43:00,
2013-05-11 10:46:00,69.6,50.2,30.03,WNW,298,5.0,9.0,50,0.00,,CLR,0.00,VWS V14.01,2013-05-11 17:46:00,
2013-05-11 10:47:00,69.6,49.1,30.03,NW,313,2.0,6.0,48,0.00,,CLR,0.00,VWS V14.01,2013-05-11 17:47:00,
2013-05-11 10:48:00,69.6,49.6,30.03,NW,305,5.0,6.0,49,0.00,,CLR,0.00,VWS V14.01,2013-05-11 17:48:00,
2013-05-11 10:52:00,69.3,49.3,30.03,NW,319,0.0,7.0,49,0.00,,CLR,0.00,VWS V14.01,2013-05-11 17:52:00,
2013-05-11 10:53:00,69.4,49.4,30.03,West,261,3.0,7.0,49,0.00,,CLR,0.00,VWS V14.01,2013-05-11 17:53:00,
2013-05-11 10:54:00,69.4,50.0,30.03,SW,227,5.0,7.0,50,0.00,,CLR,0.00,VWS V14.01,2013-05-11 17:54:00,
2013-05-11 10:55:00,69.4,49.4,30.03,WNW,285,0.0,7.0,49,0.00,,CLR,0.00,VWS V14.01,2013-05-11 17:55:00,
2013-05-11 10:58:00,69.6,50.2,30.03,West,267,3.0,8.0,50,0.00,,CLR,0.00,VWS V14.01,2013-05-11 17:58:00,
2013-05-11 10:59:00,69.4,48.9,30.03,West,275,0.0,8.0,48,0.00,,CLR,0.00,VWS V14.01,2013-05-11 17:59:00,
2013-05-11 11:00:00,69.6,49.1,30.03,NW,309,5.0,8.0,48,0.00,,CLR,0.00,VWS V14.01,2013-05-11 18:00:00,
2013-05-11 11:01:00,69.6,49.1,30.03,SW,223,5.0,8.0,48,0.00,,CLR,0.00,VWS V14.01,2013-05-11 18:01:00,
2013-05-11 11:03:00,69.9,49.9,30.03,NW,325,6.0,8.0,49,0.00,,CLR,0.00,VWS V14.01,2013-05-11 18:03:00,
2013-05-11 11:05:00,70.1,50.6,30.03,WNW,289,1.0,8.0,50,0.00,,CLR,0.00,VWS V14.01,2013-05-11 18:05:00,
2013-05-11 11:06:00,70.1,49.5,30.03,WNW,292,2.0,8.0,48,0.00,,CLR,0.00,VWS V14.01,2013-05-11 18:06:00,
2013-05-11 11:08:00,70.3,49.7,30.03,WNW,292,5.0,6.0,48,0.00,,CLR,0.00,VWS V14.01,2013-05-11 18:08:00,
2013-05-11 11:10:00,70.3,48.6,30.03,WNW,285,0.0,7.0,46,0.00,,CLR,0.00,VWS V14.01,2013-05-11 18:10:00,
2013-05-11 11:11:00,70.3,48.0,30.03,WNW,282,0.0,7.0,45,0.00,,CLR,0.00,VWS V14.01,2013-05-11 18:11:00,
2013-05-11 11:12:00,70.4,48.7,30.03,WNW,301,1.0,1.0,46,0.00,,CLR,0.00,VWS V14.01,2013-05-11 18:12:00,
2013-05-11 11:13:00,70.6,48.2,30.03,NNW,340,5.0,6.0,45,0.00,,CLR,0.00,VWS V14.01,2013-05-11 18:13:00,
2013-05-11 11:17:00,70.6,49.4,30.03,SW,232,2.0,4.0,47,0.00,,CLR,0.00,VWS V14.01,2013-05-11 18:17:00,
2013-05-11 11:18:00,70.8,49.0,30.03,WSW,254,0.0,4.0,46,0.00,,CLR,0.00,VWS V14.01,2013-05-11 18:18:00,
2013-05-11 11:19:00,70.9,49.1,30.03,WNW,288,1.0,5.0,46,0.00,,CLR,0.00,VWS V14.01,2013-05-11 18:19:00,
2013-05-11 11:21:00,71.1,49.3,30.03,West,280,0.0,5.0,46,0.00,,CLR,0.00,VWS V14.01,2013-05-11 18:21:00,
2013-05-11 11:23:00,71.3,49.5,30.03,NW,305,5.0,7.0,46,0.00,,CLR,0.00,VWS V14.01,2013-05-11 18:23:00,
2013-05-11 11:25:00,71.3,49.5,30.03,SSW,212,0.0,7.0,46,0.00,,CLR,0.00,VWS V14.01,2013-05-11 18:25:00,
2013-05-11 11:26:00,71.5,49.7,30.03,WNW,285,0.0,7.0,46,0.00,,CLR,0.00,VWS V14.01,2013-05-11 18:26:00,
2013-05-11 11:27:00,71.6,49.8,30.03,West,271,5.0,6.0,46,0.00,,CLR,0.00,VWS V14.01,2013-05-11 18:27:00,
2013-05-11 11:31:00,71.5,49.1,30.03,West,264,6.0,11.0,45,0.00,,CLR,0.00,VWS V14.01,2013-05-11 18:31:00,
2013-05-11 11:32:00,71.3,48.3,30.03,WNW,295,1.0,6.0,44,0.00,,CLR,0.00,VWS V14.01,2013-05-11 18:32:00,
2013-05-11 11:34:00,71.3,49.5,30.03,West,272,0.0,6.0,46,0.00,,CLR,0.00,VWS V14.01,2013-05-11 18:34:00,
2013-05-11 11:35:00,71.3,48.9,30.03,NW,306,4.0,7.0,45,0.00,,CLR,0.00,VWS V14.01,2013-05-11 18:35:00,
2013-05-11 11:38:00,71.5,48.5,30.03,West,265,0.0,6.0,44,0.00,,CLR,0.00,VWS V14.01,2013-05-11 18:38:00,
2013-05-11 11:39:00,71.6,49.2,30.03,West,268,0.0,6.0,45,0.00,,CLR,0.00,VWS V14.01,2013-05-11 18:39:00,
2013-05-11 11:40:00,71.8,48.7,30.03,West,275,0.0,6.0,44,0.00,,CLR,0.00,VWS V14.01,2013-05-11 18:40:00,
2013-05-11 11:41:00,72.0,48.9,30.03,WSW,243,2.0,6.0,44,0.00,,CLR,0.00,VWS V14.01,2013-05-11 18:41:00,
2013-05-11 11:44:00,72.1,47.8,30.03,West,270,3.0,6.0,42,0.00,,CLR,0.00,VWS V14.01,2013-05-11 18:44:00,
2013-05-11 11:45:00,72.1,47.1,30.03,West,260,1.0,6.0,41,0.00,,CLR,0.00,VWS V14.01,2013-05-11 18:45:00,
2013-05-11 11:46:00,72.3,48.0,30.03,WNW,292,2.0,2.0,42,0.00,,CLR,0.00,VWS V14.01,2013-05-11 18:46:00,
2013-05-11 11:48:00,72.3,46.7,30.03,WSW,246,3.0,5.0,40,0.00,,CLR,0.00,VWS V14.01,2013-05-11 18:48:00,
2013-05-11 11:49:00,72.3,46.7,30.03,WSW,240,0.0,5.0,40,0.00,,CLR,0.00,VWS V14.01,2013-05-11 18:49:00,
2013-05-11 11:50:00,72.5,48.1,30.03,NW,318,0.0,5.0,42,0.00,,CLR,0.00,VWS V14.01,2013-05-11 18:50:00,
2013-05-11 11:51:00,72.7,48.3,30.03,NW,313,0.0,5.0,42,0.00,,CLR,0.00,VWS V14.01,2013-05-11 18:51:00,
2013-05-11 11:54:00,73.2,46.8,30.03,WNW,299,0.0,3.0,39,0.00,,CLR,0.00,VWS V14.01,2013-05-11 18:54:00,
2013-05-11 11:55:00,73.3,46.9,30.03,NW,309,6.0,6.0,39,0.00,,CLR,0.00,VWS V14.01,2013-05-11 18:55:00,
2013-05-11 11:56:00,73.5,45.7,30.03,NW,318,0.0,7.0,37,0.00,,CLR,0.00,VWS V14.01,2013-05-11 18:56:00,
2013-05-11 12:01:00,74.2,45.6,30.02,West,280,3.0,6.0,36,0.00,,CLR,0.00,VWS V14.01,2013-05-11 19:01:00,
2013-05-11 12:02:00,74.2,45.6,30.02,West,277,2.0,3.0,36,0.00,,CLR,0.00,VWS V14.01,2013-05-11 19:02:00,
2013-05-11 12:04:00,74.4,45.7,30.02,West,278,1.0,3.0,36,0.00,,CLR,0.00,VWS V14.01,2013-05-11 19:04:00,
2013-05-11 12:06:00,74.4,43.5,30.02,West,274,0.0,6.0,33,0.00,,CLR,0.00,VWS V14.01,2013-05-11 19:06:00,
2013-05-11 12:07:00,74.4,44.2,30.02,West,271,0.0,2.0,34,0.00,,CLR,0.00,VWS V14.01,2013-05-11 19:07:00,
2013-05-11 12:09:00,74.6,43.6,30.02,West,268,2.0,5.0,33,0.00,,CLR,0.00,VWS V14.01,2013-05-11 19:09:00,
2013-05-11 12:13:00,74.6,43.6,30.02,WSW,258,0.0,3.0,33,0.00,,CLR,0.00,VWS V14.01,2013-05-11 19:13:00,
2013-05-11 12:14:00,74.4,42.7,30.02,SW,216,2.0,3.0,32,0.00,,CLR,0.00,VWS V14.01,2013-05-11 19:14:00,
2013-05-11 12:15:00,74.4,42.7,30.02,WNW,284,0.0,3.0,32,0.00,,CLR,0.00,VWS V14.01,2013-05-11 19:15:00,
2013-05-11 12:16:00,74.4,43.5,30.02,WNW,302,0.0,3.0,33,0.00,,CLR,0.00,VWS V14.01,2013-05-11 19:16:00,
2013-05-11 12:19:00,74.6,44.4,30.02,WNW,291,0.0,6.0,34,0.00,,CLR,0.00,VWS V14.01,2013-05-11 19:19:00,
2013-05-11 12:20:00,74.6,44.4,30.02,WNW,291,0.0,6.0,34,0.00,,CLR,0.00,VWS V14.01,2013-05-11 19:20:00,
2013-05-11 12:21:00,74.6,44.4,30.02,WNW,291,2.0,6.0,34,0.00,,CLR,0.00,VWS V14.01,2013-05-11 19:21:00,
2013-05-11 12:24:00,74.7,45.3,30.02,WNW,282,2.0,5.0,35,0.00,,CLR,0.00,VWS V14.01,2013-05-11 19:24:00,
2013-05-11 12:25:00,74.7,45.3,30.02,WNW,288,1.0,5.0,35,0.00,,CLR,0.00,VWS V14.01,2013-05-11 19:25:00,
2013-05-11 12:26:00,74.7,44.5,30.02,WNW,288,2.0,2.0,34,0.00,,CLR,0.00,VWS V14.01,2013-05-11 19:26:00,
2013-05-11 12:27:00,74.7,44.5,30.02,NW,308,2.0,3.0,34,0.00,,CLR,0.00,VWS V14.01,2013-05-11 19:27:00,
2013-05-11 12:29:00,74.7,44.5,30.02,WNW,291,0.0,5.0,34,0.00,,CLR,0.00,VWS V14.01,2013-05-11 19:29:00,
2013-05-11 12:30:00,74.7,45.3,30.02,WNW,291,0.0,5.0,35,0.00,,CLR,0.00,VWS V14.01,2013-05-11 19:30:00,
2013-05-11 12:35:00,74.9,45.4,30.02,West,280,4.0,5.0,35,0.00,,CLR,0.00,VWS V14.01,2013-05-11 19:35:00,
2013-05-11 12:36:00,74.9,45.4,30.02,NW,305,3.0,5.0,35,0.00,,CLR,0.00,VWS V14.01,2013-05-11 19:36:00,
2013-05-11 12:37:00,74.9,46.2,30.02,WNW,296,4.0,4.0,36,0.00,,CLR,0.00,VWS V14.01,2013-05-11 19:37:00,
2013-05-11 12:39:00,74.9,46.2,30.02,WNW,302,0.0,4.0,36,0.00,,CLR,0.00,VWS V14.01,2013-05-11 19:39:00,
2013-05-11 12:41:00,74.9,46.2,30.02,NW,326,0.0,5.0,36,0.00,,CLR,0.00,VWS V14.01,2013-05-11 19:41:00,
2013-05-11 12:45:00,74.9,46.2,30.02,NW,312,0.0,6.0,36,0.00,,CLR,0.00,VWS V14.01,2013-05-11 19:45:00,
2013-05-11 12:46:00,74.9,46.9,30.02,NW,308,3.0,6.0,37,0.00,,CLR,0.00,VWS V14.01,2013-05-11 19:46:00,
2013-05-11 12:47:00,74.9,46.2,30.02,NW,316,1.0,5.0,36,0.00,,CLR,0.00,VWS V14.01,2013-05-11 19:47:00,
2013-05-11 12:49:00,74.7,46.7,30.02,NW,323,3.0,6.0,37,0.00,,CLR,0.00,VWS V14.01,2013-05-11 19:49:00,
2013-05-11 12:50:00,74.6,46.6,30.02,NW,315,4.0,7.0,37,0.00,,CLR,0.00,VWS V14.01,2013-05-11 19:50:00,
2013-05-11 12:52:00,74.4,47.2,30.02,NW,319,4.0,6.0,38,0.00,,CLR,0.00,VWS V14.01,2013-05-11 19:52:00,
2013-05-11 12:53:00,74.4,47.2,30.02,NW,316,2.0,6.0,38,0.00,,CLR,0.00,VWS V14.01,2013-05-11 19:53:00,
2013-05-11 12:54:00,74.2,47.7,30.02,NW,320,1.0,6.0,39,0.00,,CLR,0.00,VWS V14.01,2013-05-11 19:54:00,
2013-05-11 12:56:00,74.2,47.0,30.02,NW,322,0.0,0.0,38,0.00,,CLR,0.00,VWS V14.01,2013-05-11 19:56:00,
2013-05-11 12:58:00,74.2,47.7,30.02,NW,322,0.0,1.0,39,0.00,,CLR,0.00,VWS V14.01,2013-05-11 19:58:00,
2013-05-11 12:59:00,74.2,47.7,30.02,NW,322,0.0,1.0,39,0.00,,CLR,0.00,VWS V14.01,2013-05-11 19:59:00,
2013-05-11 13:01:00,74.4,46.5,30.01,NW,322,0.0,1.0,37,0.00,,CLR,0.00,VWS V14.01,2013-05-11 20:01:00,
2013-05-11 13:02:00,74.6,47.3,30.01,NW,322,0.0,0.0,38,0.00,,CLR,0.00,VWS V14.01,2013-05-11 20:02:00,
2013-05-11 13:04:00,75.1,47.1,30.01,NW,320,0.0,1.0,37,0.00,,CLR,0.00,VWS V14.01,2013-05-11 20:04:00,
2013-05-11 13:07:00,75.8,47.7,30.01,NW,320,0.0,0.0,37,0.00,,CLR,0.00,VWS V14.01,2013-05-11 20:07:00,
2013-05-11 13:08:00,75.8,47.7,30.01,NW,320,0.0,0.0,37,0.00,,CLR,0.00,VWS V14.01,2013-05-11 20:08:00,
2013-05-11 13:11:00,76.3,47.4,30.01,WSW,258,0.0,0.0,36,0.00,,CLR,0.00,VWS V14.01,2013-05-11 20:11:00,
2013-05-11 13:13:00,76.5,47.6,30.01,West,260,0.0,0.0,36,0.00,,CLR,0.00,VWS V14.01,2013-05-11 20:13:00,
2013-05-11 13:14:00,76.7,47.8,30.01,West,260,0.0,0.0,36,0.00,,CLR,0.00,VWS V14.01,2013-05-11 20:14:00,
2013-05-11 13:15:00,76.7,47.8,30.00,West,260,0.0,0.0,36,0.00,,CLR,0.00,VWS V14.01,2013-05-11 20:15:00,
2013-05-11 13:17:00,76.8,47.8,30.00,West,263,0.0,0.0,36,0.00,,CLR,0.00,VWS V14.01,2013-05-11 20:17:00,
2013-05-11 13:19:00,77.2,48.2,30.00,West,264,0.0,0.0,36,0.00,,CLR,0.00,VWS V14.01,2013-05-11 20:19:00,
2013-05-11 13:21:00,77.4,48.4,30.00,West,265,0.0,2.0,36,0.00,,CLR,0.00,VWS V14.01,2013-05-11 20:21:00,
2013-05-11 13:24:00,77.9,48.8,30.00,WNW,285,0.0,3.0,36,0.00,,CLR,0.00,VWS V14.01,2013-05-11 20:24:00,
2013-05-11 13:25:00,78.1,49.0,30.00,WNW,287,1.0,3.0,36,0.00,,CLR,0.00,VWS V14.01,2013-05-11 20:25:00,
2013-05-11 13:26:00,78.3,49.2,30.00,WNW,287,0.0,3.0,36,0.00,,CLR,0.00,VWS V14.01,2013-05-11 20:26:00,
2013-05-11 13:29:00,78.6,49.4,30.00,WNW,288,0.0,2.0,36,0.00,,CLR,0.00,VWS V14.01,2013-05-11 20:29:00,
2013-05-11 13:34:00,79.0,49.0,30.00,SSE,157,0.0,3.0,35,0.00,,CLR,0.00,VWS V14.01,2013-05-11 20:34:00,
2013-05-11 13:35:00,79.0,49.8,30.00,ESE,109,3.0,3.0,36,0.00,,CLR,0.00,VWS V14.01,2013-05-11 20:35:00,
2013-05-11 13:36:00,78.8,48.9,30.00,ESE,109,1.0,3.0,35,0.00,,CLR,0.00,VWS V14.01,2013-05-11 20:36:00,
2013-05-11 13:41:00,78.8,49.6,30.00,WNW,292,4.0,6.0,36,0.00,,CLR,0.00,VWS V14.01,2013-05-11 20:41:00,
2013-05-11 13:43:00,78.8,48.9,30.00,WNW,292,0.0,4.0,35,0.00,,CLR,0.00,VWS V14.01,2013-05-11 20:43:00,
2013-05-11 13:46:00,79.0,49.8,30.00,NW,319,5.0,5.0,36,0.00,,CLR,0.00,VWS V14.01,2013-05-11 20:46:00,
2013-05-11 13:47:00,79.0,50.5,30.00,WSW,241,2.0,5.0,37,0.00,,CLR,0.00,VWS V14.01,2013-05-11 20:47:00,
2013-05-11 13:50:00,78.8,49.6,30.00,WSW,241,0.0,5.0,36,0.00,,CLR,0.00,VWS V14.01,2013-05-11 20:50:00,
2013-05-11 13:51:00,78.8,50.4,30.00,WSW,241,2.0,2.0,37,0.00,,CLR,0.00,VWS V14.01,2013-05-11 20:51:00,
2013-05-11 13:54:00,78.8,50.4,30.00,SW,234,3.0,6.0,37,0.00,,CLR,0.00,VWS V14.01,2013-05-11 20:54:00,
2013-05-11 13:55:00,78.6,50.2,30.00,SW,233,3.0,6.0,37,0.00,,CLR,0.00,VWS V14.01,2013-05-11 20:55:00,
2013-05-11 13:57:00,78.6,50.9,30.00,West,278,3.0,5.0,38,0.00,,CLR,0.00,VWS V14.01,2013-05-11 20:57:00,
2013-05-11 13:58:00,78.6,50.9,30.00,West,278,1.0,5.0,38,0.00,,CLR,0.00,VWS V14.01,2013-05-11 20:58:00,
2013-05-11 14:01:00,78.8,52.5,30.00,West,275,1.0,6.0,40,0.00,,CLR,0.00,VWS V14.01,2013-05-11 21:01:00,
2013-05-11 14:03:00,79.0,52.6,30.00,WSW,256,6.0,8.0,40,0.00,,CLR,0.00,VWS V14.01,2013-05-11 21:03:00,
2013-05-11 14:04:00,78.8,51.8,30.00,SW,222,3.0,8.0,39,0.00,,CLR,0.00,VWS V14.01,2013-05-11 21:04:00,
2013-05-11 14:05:00,78.8,52.5,30.00,WNW,287,2.0,8.0,40,0.00,,CLR,0.00,VWS V14.01,2013-05-11 21:05:00,
2013-05-11 14:08:00,79.0,52.6,30.00,WSW,257,4.0,4.0,40,0.00,,CLR,0.00,VWS V14.01,2013-05-11 21:08:00,
2013-05-11 14:09:00,79.0,52.0,30.00,SW,226,0.0,6.0,39,0.00,,CLR,0.00,VWS V14.01,2013-05-11 21:09:00,
2013-05-11 14:10:00,79.0,52.0,30.00,NW,315,4.0,6.0,39,0.00,,CLR,0.00,VWS V14.01,2013-05-11 21:10:00,
2013-05-11 14:11:00,79.0,52.0,30.00,NW,318,5.0,7.0,39,0.00,,CLR,0.00,VWS V14.01,2013-05-11 21:11:00,
2013-05-11 14:12:00,78.8,51.8,30.00,WNW,287,3.0,10.0,39,0.00,,CLR,0.00,VWS V14.01,2013-05-11 21:12:00,
2013-05-11 14:15:00,78.5,52.9,30.00,WNW,292,0.0,10.0,41,0.00,,CLR,0.00,VWS V14.01,2013-05-11 21:15:00,
2013-05-11 14:16:00,78.5,52.9,30.00,WNW,291,5.0,10.0,41,0.00,,CLR,0.00,VWS V14.01,2013-05-11 21:16:00,
2013-05-11 14:17:00,78.3,52.7,30.00,NW,309,7.0,8.0,41,0.00,,CLR,0.00,VWS V14.01,2013-05-11 21:17:00,
2013-05-11 14:18:00,78.3,53.3,30.00,NW,322,4.0,8.0,42,0.00,,CLR,0.00,VWS V14.01,2013-05-11 21:18:00,
2013-05-11 14:21:00,77.9,53.0,30.00,NNW,335,3.0,3.0,42,0.00,,CLR,0.00,VWS V14.01,2013-05-11 21:21:00,
2013-05-11 14:22:00,77.9,53.0,30.00,NW,319,6.0,6.0,42,0.00,,CLR,0.00,VWS V14.01,2013-05-11 21:22:00,
2013-05-11 14:23:00,77.9,52.3,30.00,WSW,258,5.0,6.0,41,0.00,,CLR,0.00,VWS V14.01,2013-05-11 21:23:00,
2013-05-11 14:25:00,77.9,53.0,30.00,WNW,292,0.0,6.0,42,0.00,,CLR,0.00,VWS V14.01,2013-05-11 21:25:00,
2013-05-11 14:28:00,78.1,53.2,30.00,SW,233,6.0,6.0,42,0.00,,CLR,0.00,VWS V14.01,2013-05-11 21:28:00,
2013-05-11 14:31:00,78.3,53.3,29.99,SW,234,3.0,6.0,42,0.00,,CLR,0.00,VWS V14.01,2013-05-11 21:31:00,
2013-05-11 14:32:00,78.3,53.3,29.99,SW,230,5.0,9.0,42,0.00,,CLR,0.00,VWS V14.01,2013-05-11 21:32:00,
2013-05-11 14:36:00,78.3,52.7,29.99,NW,315,3.0,9.0,41,0.00,,CLR,0.00,VWS V14.01,2013-05-11 21:36:00,
2013-05-11 14:38:00,78.3,53.3,29.99,WNW,289,3.0,6.0,42,0.00,,CLR,0.00,VWS V14.01,2013-05-11 21:38:00,
2013-05-11 14:40:00,78.3,53.3,29.99,WNW,294,6.0,7.0,42,0.00,,CLR,0.00,VWS V14.01,2013-05-11 21:40:00,
2013-05-11 14:41:00,78.3,53.3,29.99,NW,315,5.0,5.0,42,0.00,,CLR,0.00,VWS V14.01,2013-05-11 21:41:00,
2013-05-11 14:42:00,78.3,53.3,29.99,NW,323,0.0,6.0,42,0.00,,CLR,0.00,VWS V14.01,2013-05-11 21:42:00,
2013-05-11 14:45:00,77.9,53.0,29.99,NW,313,4.0,7.0,42,0.00,,CLR,0.00,VWS V14.01,2013-05-11 21:45:00,
2013-05-11 14:46:00,77.9,53.0,29.99,NW,325,3.0,6.0,42,0.00,,CLR,0.00,VWS V14.01,2013-05-11 21:46:00,
2013-05-11 14:47:00,77.7,52.8,29.99,NW,309,3.0,6.0,42,0.00,,CLR,0.00,VWS V14.01,2013-05-11 21:47:00,
2013-05-11 14:49:00,77.6,53.4,29.99,WNW,301,0.0,6.0,43,0.00,,CLR,0.00,VWS V14.01,2013-05-11 21:49:00,
2013-05-11 14:52:00,77.4,53.8,29.99,SSW,213,0.0,6.0,44,0.00,,CLR,0.00,VWS V14.01,2013-05-11 21:52:00,
2013-05-11 14:53:00,77.4,53.2,29.99,SW,224,2.0,6.0,43,0.00,,CLR,0.00,VWS V14.01,2013-05-11 21:53:00,
2013-05-11 14:54:00,77.4,53.2,29.99,West,278,0.0,6.0,43,0.00,,CLR,0.00,VWS V14.01,2013-05-11 21:54:00,
2013-05-11 14:56:00,77.4,53.2,29.99,WNW,299,2.0,6.0,43,0.00,,CLR,0.00,VWS V14.01,2013-05-11 21:56:00,
2013-05-11 14:57:00,77.4,53.2,29.99,WNW,288,3.0,6.0,43,0.00,,CLR,0.00,VWS V14.01,2013-05-11 21:57:00,
2013-05-11 14:58:00,77.4,53.8,29.99,NW,320,5.0,6.0,44,0.00,,CLR,0.00,VWS V14.01,2013-05-11 21:58:00,
2013-05-11 15:00:00,77.4,53.2,29.99,WNW,298,2.0,6.0,43,0.00,,CLR,0.00,VWS V14.01,2013-05-11 22:00:00,
2013-05-11 15:02:00,77.4,53.8,29.99,West,277,0.0,3.0,44,0.00,,CLR,0.00,VWS V14.01,2013-05-11 22:02:00,
2013-05-11 15:04:00,77.2,53.6,29.99,West,277,7.0,7.0,44,0.00,,CLR,0.00,VWS V14.01,2013-05-11 22:04:00,
2013-05-11 15:05:00,77.2,53.6,29.99,NW,316,7.0,7.0,44,0.00,,CLR,0.00,VWS V14.01,2013-05-11 22:05:00,
2013-05-11 15:07:00,77.0,52.8,29.99,NW,313,7.0,7.0,43,0.00,,CLR,0.00,VWS V14.01,2013-05-11 22:07:00,
2013-05-11 15:08:00,76.8,52.6,29.99,WNW,287,8.0,8.0,43,0.00,,CLR,0.00,VWS V14.01,2013-05-11 22:08:00,
2013-05-11 15:12:00,76.5,53.6,29.99,WNW,288,0.0,0.0,45,0.00,,CLR,0.00,VWS V14.01,2013-05-11 22:12:00,
2013-05-11 15:13:00,76.5,53.0,29.99,WNW,288,0.0,0.0,44,0.00,,CLR,0.00,VWS V14.01,2013-05-11 22:13:00,
2013-05-11 15:14:00,76.5,54.2,29.99,NW,305,6.0,6.0,46,0.00,,CLR,0.00,VWS V14.01,2013-05-11 22:14:00,
2013-05-11 15:16:00,76.5,53.0,29.98,WNW,292,2.0,7.0,44,0.00,,CLR,0.00,VWS V14.01,2013-05-11 22:16:00,
2013-05-11 15:19:00,76.5,53.0,29.98,WNW,287,0.0,1.0,44,0.00,,CLR,0.00,VWS V14.01,2013-05-11 22:19:00,
2013-05-11 15:20:00,76.5,53.0,29.98,West,271,2.0,2.0,44,0.00,,CLR,0.00,VWS V14.01,2013-05-11 22:20:00,
2013-05-11 15:21:00,76.3,52.8,29.98,WSW,258,2.0,3.0,44,0.00,,CLR,0.00,VWS V14.01,2013-05-11 22:21:00,
2013-05-11 15:22:00,76.3,53.4,29.98,West,260,0.0,1.0,45,0.00,,CLR,0.00,VWS V14.01,2013-05-11 22:22:00,
2013-05-11 15:26:00,76.5,53.6,29.98,NW,311,0.0,3.0,45,0.00,,CLR,0.00,VWS V14.01,2013-05-11 22:26:00,
2013-05-11 15:29:00,76.7,54.4,29.98,WNW,292,1.0,3.0,46,0.00,,CLR,0.00,VWS V14.01,2013-05-11 22:29:00,
2013-05-11 15:30:00,76.7,53.8,29.98,WNW,299,2.0,3.0,45,0.00,,CLR,0.00,VWS V14.01,2013-05-11 22:30:00,
2013-05-11 15:31:00,76.8,52.6,29.98,WNW,302,2.0,5.0,43,0.00,,CLR,0.00,VWS V14.01,2013-05-11 22:31:00,
2013-05-11 15:34:00,77.0,52.8,29.98,NW,315,1.0,3.0,43,0.00,,CLR,0.00,VWS V14.01,2013-05-11 22:34:00,
2013-05-11 15:36:00,77.4,54.4,29.98,West,265,2.0,3.0,45,0.00,,CLR,0.00,VWS V14.01,2013-05-11 22:36:00,
2013-05-11 15:37:00,77.6,53.4,29.98,WSW,258,0.0,2.0,43,0.00,,CLR,0.00,VWS V14.01,2013-05-11 22:37:00,
2013-05-11 15:39:00,77.9,53.6,29.98,WNW,294,0.0,4.0,43,0.00,,CLR,0.00,VWS V14.01,2013-05-11 22:39:00,
2013-05-11 15:41:00,78.1,53.2,29.98,SW,226,1.0,4.0,42,0.00,,CLR,0.00,VWS V14.01,2013-05-11 22:41:00,
2013-05-11 15:42:00,78.1,52.5,29.98,WNW,289,2.0,5.0,41,0.00,,CLR,0.00,VWS V14.01,2013-05-11 22:42:00,
2013-05-11 15:43:00,78.3,52.0,29.98,WNW,291,0.0,5.0,40,0.00,,CLR,0.00,VWS V14.01,2013-05-11 22:43:00,
2013-05-11 15:44:00,78.3,52.7,29.98,WNW,291,0.0,5.0,41,0.00,,CLR,0.00,VWS V14.01,2013-05-11 22:44:00,
2013-05-11 15:46:00,78.6,53.6,29.97,WNW,292,0.0,5.0,42,0.00,,CLR,0.00,VWS V14.01,2013-05-11 22:46:00,
2013-05-11 15:49:00,79.2,54.2,29.97,WNW,294,1.0,2.0,42,0.00,,CLR,0.00,VWS V14.01,2013-05-11 22:49:00,
2013-05-11 15:50:00,79.4,53.0,29.97,WNW,294,0.0,2.0,40,0.00,,CLR,0.00,VWS V14.01,2013-05-11 22:50:00,
2013-05-11 15:51:00,79.6,53.8,29.97,WNW,294,0.0,2.0,41,0.00,,CLR,0.00,VWS V14.01,2013-05-11 22:51:00,
2013-05-11 15:53:00,80.1,54.3,29.97,West,267,3.0,4.0,41,0.00,,CLR,0.00,VWS V14.01,2013-05-11 22:53:00,
2013-05-11 15:55:00,80.1,52.9,29.97,West,268,6.0,6.0,39,0.00,,CLR,0.00,VWS V14.01,2013-05-11 22:55:00,
2013-05-11 15:57:00,80.1,52.2,29.97,West,268,0.0,2.0,38,0.00,,CLR,0.00,VWS V14.01,2013-05-11 22:57:00,
2013-05-11 15:58:00,80.3,52.4,29.97,West,268,1.0,2.0,38,0.00,,CLR,0.00,VWS V14.01,2013-05-11 22:58:00,
2013-05-11 16:00:00,80.5,52.6,29.97,West,275,3.0,5.0,38,0.00,,CLR,0.00,VWS V14.01,2013-05-11 23:00:00,
2013-05-11 16:01:00,80.5,52.6,29.97,West,275,2.0,5.0,38,0.00,,CLR,0.00,VWS V14.01,2013-05-11 23:01:00,
2013-05-11 16:03:00,80.5,53.3,29.97,West,277,3.0,3.0,39,0.00,,CLR,0.00,VWS V14.01,2013-05-11 23:03:00,
2013-05-11 16:04:00,80.5,52.6,29.97,WNW,287,5.0,5.0,38,0.00,,CLR,0.00,VWS V14.01,2013-05-11 23:04:00,
2013-05-11 16:06:00,80.5,51.9,29.97,WNW,298,2.0,6.0,37,0.00,,CLR,0.00,VWS V14.01,2013-05-11 23:06:00,
2013-05-11 16:10:00,80.7,52.0,29.97,WNW,296,0.0,1.0,37,0.00,,CLR,0.00,VWS V14.01,2013-05-11 23:10:00,
2013-05-11 16:11:00,80.7,52.0,29.97,WSW,241,4.0,6.0,37,0.00,,CLR,0.00,VWS V14.01,2013-05-11 23:11:00,
2013-05-11 16:12:00,80.5,51.9,29.97,SW,215,6.0,6.0,37,0.00,,CLR,0.00,VWS V14.01,2013-05-11 23:12:00,
2013-05-11 16:16:00,80.7,54.2,29.97,West,265,5.0,6.0,40,0.00,,CLR,0.00,VWS V14.01,2013-05-11 23:16:00,
2013-05-11 16:20:00,80.7,52.0,29.97,West,280,0.0,6.0,37,0.00,,CLR,0.00,VWS V14.01,2013-05-11 23:20:00,
2013-05-11 16:21:00,80.7,52.8,29.97,West,280,1.0,6.0,38,0.00,,CLR,0.00,VWS V14.01,2013-05-11 23:21:00,
2013-05-11 16:22:00,80.7,52.0,29.97,WSW,258,5.0,6.0,37,0.00,,CLR,0.00,VWS V14.01,2013-05-11 23:22:00,
2013-05-11 16:25:00,80.7,52.0,29.97,SSW,202,2.0,7.0,37,0.00,,CLR,0.00,VWS V14.01,2013-05-11 23:25:00,
2013-05-11 16:27:00,80.5,51.9,29.97,SSW,209,1.0,3.0,37,0.00,,CLR,0.00,VWS V14.01,2013-05-11 23:27:00,
2013-05-11 16:28:00,80.5,52.6,29.97,WSW,254,5.0,5.0,38,0.00,,CLR,0.00,VWS V14.01,2013-05-11 23:28:00,
2013-05-11 16:29:00,80.5,52.6,29.97,SSW,196,2.0,5.0,38,0.00,,CLR,0.00,VWS V14.01,2013-05-11 23:29:00,
2013-05-11 16:31:00,80.5,52.6,29.96,WSW,246,3.0,5.0,38,0.00,,CLR,0.00,VWS V14.01,2013-05-11 23:31:00,
2013-05-11 16:34:00,80.5,51.9,29.96,WSW,237,4.0,8.0,37,0.00,,CLR,0.00,VWS V14.01,2013-05-11 23:34:00,
2013-05-11 16:35:00,80.5,52.6,29.96,WSW,237,2.0,8.0,38,0.00,,CLR,0.00,VWS V14.01,2013-05-11 23:35:00,
2013-05-11 16:36:00,80.7,53.5,29.96,SSW,192,0.0,8.0,39,0.00,,CLR,0.00,VWS V14.01,2013-05-11 23:36:00,
2013-05-11 16:38:00,80.7,52.8,29.96,SSW,200,1.0,5.0,38,0.00,,CLR,0.00,VWS V14.01,2013-05-11 23:38:00,
2013-05-11 16:39:00,80.7,52.8,29.96,SSW,200,1.0,5.0,38,0.00,,CLR,0.00,VWS V14.01,2013-05-11 23:39:00,
2013-05-11 16:40:00,80.9,53.7,29.96,West,275,0.0,5.0,39,0.00,,CLR,0.00,VWS V14.01,2013-05-11 23:40:00,
2013-05-11 16:43:00,81.1,52.4,29.96,WSW,237,1.0,5.0,37,0.00,,CLR,0.00,VWS V14.01,2013-05-11 23:43:00,
2013-05-11 16:45:00,81.1,52.4,29.96,NW,308,3.0,7.0,37,0.00,,CLR,0.00,VWS V14.01,2013-05-11 23:45:00,
2013-05-11 16:46:00,81.1,52.4,29.95,WNW,288,2.0,7.0,37,0.00,,CLR,0.00,VWS V14.01,2013-05-11 23:46:00,
2013-05-11 16:48:00,81.1,52.4,29.95,West,271,0.0,3.0,37,0.00,,CLR,0.00,VWS V14.01,2013-05-11 23:48:00,
2013-05-11 16:50:00,81.1,53.1,29.95,SSW,205,0.0,3.0,38,0.00,,CLR,0.00,VWS V14.01,2013-05-11 23:50:00,
2013-05-11 16:54:00,81.1,52.4,29.95,South,186,0.0,6.0,37,0.00,,CLR,0.00,VWS V14.01,2013-05-11 23:54:00,
2013-05-11 16:55:00,81.1,53.1,29.95,SSW,202,2.0,6.0,38,0.00,,CLR,0.00,VWS V14.01,2013-05-11 23:55:00,
2013-05-11 16:56:00,81.1,52.4,29.95,SSW,203,5.0,6.0,37,0.00,,CLR,0.00,VWS V14.01,2013-05-11 23:56:00,
2013-05-11 16:58:00,80.9,51.5,29.95,SSW,203,0.0,5.0,36,0.00,,CLR,0.00,VWS V14.01,2013-05-11 23:58:00,
2013-05-11 17:00:00,80.9,52.2,29.95,SSW,203,1.0,5.0,37,0.00,,CLR,0.00,VWS V14.01,2013-05-12 00:00:00,
2013-05-11 17:01:00,80.9,52.9,29.95,SSE,161,1.0,5.0,38,0.00,,CLR,0.00,VWS V14.01,2013-05-12 00:01:00,
2013-05-11 17:02:00,80.9,52.9,29.95,SSE,161,0.0,2.0,38,0.00,,CLR,0.00,VWS V14.01,2013-05-12 00:02:00,
2013-05-11 17:03:00,80.9,52.9,29.95,SSE,162,3.0,3.0,38,0.00,,CLR,0.00,VWS V14.01,2013-05-12 00:03:00,
2013-05-11 17:06:00,80.9,51.5,29.95,SSE,162,1.0,3.0,36,0.00,,CLR,0.00,VWS V14.01,2013-05-12 00:06:00,
2013-05-11 17:08:00,80.9,51.5,29.95,WSW,239,1.0,3.0,36,0.00,,CLR,0.00,VWS V14.01,2013-05-12 00:08:00,
2013-05-11 17:09:00,80.9,51.5,29.95,WSW,239,0.0,3.0,36,0.00,,CLR,0.00,VWS V14.01,2013-05-12 00:09:00,
2013-05-11 17:11:00,81.1,51.7,29.95,WSW,239,0.0,3.0,36,0.00,,CLR,0.00,VWS V14.01,2013-05-12 00:11:00,
2013-05-11 17:13:00,81.2,52.5,29.95,WSW,239,0.0,0.0,37,0.00,,CLR,0.00,VWS V14.01,2013-05-12 00:13:00,
2013-05-11 17:16:00,81.6,52.1,29.95,WSW,239,0.0,1.0,36,0.00,,CLR,0.00,VWS V14.01,2013-05-12 00:16:00,
2013-05-11 17:18:00,81.8,52.3,29.95,WSW,239,0.0,1.0,36,0.00,,CLR,0.00,VWS V14.01,2013-05-12 00:18:00,
2013-05-11 17:19:00,81.8,52.3,29.95,WSW,239,1.0,2.0,36,0.00,,CLR,0.00,VWS V14.01,2013-05-12 00:19:00,
2013-05-11 17:20:00,81.8,52.3,29.95,WNW,298,2.0,3.0,36,0.00,,CLR,0.00,VWS V14.01,2013-05-12 00:20:00,
2013-05-11 17:21:00,81.6,52.1,29.95,WNW,302,0.0,3.0,36,0.00,,CLR,0.00,VWS V14.01,2013-05-12 00:21:00,
2013-05-11 17:22:00,81.6,52.8,29.95,WNW,302,0.0,2.0,37,0.00,,CLR,0.00,VWS V14.01,2013-05-12 00:22:00,
2013-05-11 17:23:00,81.6,52.8,29.95,WNW,302,0.0,2.0,37,0.00,,CLR,0.00,VWS V14.01,2013-05-12 00:23:00,
2013-05-11 17:25:00,81.6,52.8,29.95,WNW,302,0.0,2.0,37,0.00,,CLR,0.00,VWS V14.01,2013-05-12 00:25:00,
2013-05-11 17:27:00,81.4,52.7,29.95,WNW,302,0.0,0.0,37,0.00,,CLR,0.00,VWS V14.01,2013-05-12 00:27:00,
2013-05-11 17:28:00,81.4,52.7,29.95,WNW,302,0.0,0.0,37,0.00,,CLR,0.00,VWS V14.01,2013-05-12 00:28:00,
2013-05-11 17:30:00,81.1,52.4,29.95,SSW,205,0.0,1.0,37,0.00,,CLR,0.00,VWS V14.01,2013-05-12 00:30:00,
2013-05-11 17:31:00,81.1,53.1,29.95,SSW,205,0.0,1.0,38,0.00,,CLR,0.00,VWS V14.01,2013-05-12 00:31:00,
2013-05-11 17:33:00,80.9,53.7,29.95,SSW,205,0.0,0.0,39,0.00,,CLR,0.00,VWS V14.01,2013-05-12 00:33:00,
2013-05-11 17:35:00,80.9,52.9,29.95,SSW,205,0.0,0.0,38,0.00,,CLR,0.00,VWS V14.01,2013-05-12 00:35:00,
2013-05-11 17:36:00,80.7,52.8,29.95,SSW,205,1.0,1.0,38,0.00,,CLR,0.00,VWS V14.01,2013-05-12 00:36:00,
2013-05-11 17:38:00,80.7,52.8,29.95,SSW,205,0.0,1.0,38,0.00,,CLR,0.00,VWS V14.01,2013-05-12 00:38:00,
2013-05-11 17:40:00,80.7,53.5,29.95,SSW,205,0.0,1.0,39,0.00,,CLR,0.00,VWS V14.01,2013-05-12 00:40:00,
2013-05-11 17:41:00,80.7,52.8,29.95,SSW,205,0.0,1.0,38,0.00,,CLR,0.00,VWS V14.01,2013-05-12 00:41:00,
2013-05-11 17:43:00,80.7,52.0,29.95,SSW,205,0.0,0.0,37,0.00,,CLR,0.00,VWS V14.01,2013-05-12 00:43:00,
2013-05-11 17:46:00,80.7,52.8,29.94,SSW,205,0.0,0.0,38,0.00,,CLR,0.00,VWS V14.01,2013-05-12 00:46:00,
2013-05-11 17:48:00,80.7,52.8,29.94,SSW,205,0.0,1.0,38,0.00,,CLR,0.00,VWS V14.01,2013-05-12 00:48:00,
2013-05-11 17:51:00,80.7,52.8,29.94,SSW,205,0.0,1.0,38,0.00,,CLR,0.00,VWS V14.01,2013-05-12 00:51:00,
2013-05-11 17:52:00,80.7,52.8,29.94,SSW,206,3.0,3.0,38,0.00,,CLR,0.00,VWS V14.01,2013-05-12 00:52:00,
2013-05-11 17:53:00,80.7,52.8,29.94,SSW,206,0.0,3.0,38,0.00,,CLR,0.00,VWS V14.01,2013-05-12 00:53:00,
2013-05-11 17:54:00,80.7,52.0,29.94,SSW,206,0.0,3.0,37,0.00,,CLR,0.00,VWS V14.01,2013-05-12 00:54:00,
2013-05-11 17:56:00,80.7,52.0,29.94,WSW,239,3.0,5.0,37,0.00,,CLR,0.00,VWS V14.01,2013-05-12 00:56:00,
2013-05-11 17:57:00,80.7,52.0,29.94,SW,232,2.0,3.0,37,0.00,,CLR,0.00,VWS V14.01,2013-05-12 00:57:00,
2013-05-11 17:59:00,80.5,51.9,29.94,SW,232,0.0,3.0,37,0.00,,CLR,0.00,VWS V14.01,2013-05-12 00:59:00,
2013-05-11 18:01:00,80.5,52.6,29.94,SW,232,0.0,0.0,38,0.00,,CLR,0.00,VWS V14.01,2013-05-12 01:01:00,
2013-05-11 18:04:00,80.7,52.0,29.94,SW,232,1.0,1.0,37,0.00,,CLR,0.00,VWS V14.01,2013-05-12 01:04:00,
2013-05-11 18:05:00,80.7,52.8,29.94,SW,232,1.0,1.0,38,0.00,,CLR,0.00,VWS V14.01,2013-05-12 01:05:00,
2013-05-11 18:06:00,80.7,52.8,29.94,SW,232,1.0,2.0,38,0.00,,CLR,0.00,VWS V14.01,2013-05-12 01:06:00,
2013-05-11 18:09:00,80.9,52.2,29.94,SW,232,0.0,3.0,37,0.00,,CLR,0.00,VWS V14.01,2013-05-12 01:09:00,
2013-05-11 18:11:00,80.9,51.5,29.94,SW,233,2.0,5.0,36,0.00,,CLR,0.00,VWS V14.01,2013-05-12 01:11:00,
2013-05-11 18:15:00,80.9,52.9,29.94,SW,233,2.0,2.0,38,0.00,,CLR,0.00,VWS V14.01,2013-05-12 01:15:00,
2013-05-11 18:16:00,80.9,52.2,29.93,SW,236,3.0,3.0,37,0.00,,CLR,0.00,VWS V14.01,2013-05-12 01:16:00,
2013-05-11 18:17:00,80.7,52.0,29.93,SW,236,0.0,3.0,37,0.00,,CLR,0.00,VWS V14.01,2013-05-12 01:17:00,
2013-05-11 18:18:00,80.7,52.8,29.93,SW,236,2.0,3.0,38,0.00,,CLR,0.00,VWS V14.01,2013-05-12 01:18:00,
2013-05-11 18:20:00,80.7,53.5,29.93,SW,236,0.0,3.0,39,0.00,,CLR,0.00,VWS V14.01,2013-05-12 01:20:00,
2013-05-11 18:23:00,80.5,51.9,29.93,SW,236,0.0,0.0,37,0.00,,CLR,0.00,VWS V14.01,2013-05-12 01:23:00,
2013-05-11 18:25:00,80.3,51.7,29.93,SW,236,0.0,0.0,37,0.00,,CLR,0.00,VWS V14.01,2013-05-12 01:25:00,
2013-05-11 18:28:00,80.3,52.4,29.93,SW,236,0.0,0.0,38,0.00,,CLR,0.00,VWS V14.01,2013-05-12 01:28:00,
2013-05-11 18:29:00,80.3,52.4,29.93,SW,236,0.0,0.0,38,0.00,,CLR,0.00,VWS V14.01,2013-05-12 01:29:00,
2013-05-11 18:31:00,80.3,52.4,29.93,SW,236,0.0,0.0,38,0.00,,CLR,0.00,VWS V14.01,2013-05-12 01:31:00,
2013-05-11 18:33:00,80.3,52.4,29.93,SW,236,2.0,2.0,38,0.00,,CLR,0.00,VWS V14.01,2013-05-12 01:33:00,
2013-05-11 18:34:00,80.3,52.4,29.93,SW,236,0.0,2.0,38,0.00,,CLR,0.00,VWS V14.01,2013-05-12 01:34:00,
2013-05-11 18:36:00,80.3,52.4,29.93,SW,236,0.0,2.0,38,0.00,,CLR,0.00,VWS V14.01,2013-05-12 01:36:00,
2013-05-11 18:37:00,80.1,52.9,29.93,SW,236,0.0,1.0,39,0.00,,CLR,0.00,VWS V14.01,2013-05-12 01:37:00,
2013-05-11 18:38:00,80.1,52.9,29.93,WNW,284,3.0,3.0,39,0.00,,CLR,0.00,VWS V14.01,2013-05-12 01:38:00,
2013-05-11 18:39:00,79.9,52.0,29.93,WNW,288,0.0,5.0,38,0.00,,CLR,0.00,VWS V14.01,2013-05-12 01:39:00,
2013-05-11 18:40:00,79.9,52.0,29.93,NW,322,4.0,5.0,38,0.00,,CLR,0.00,VWS V14.01,2013-05-12 01:40:00,
2013-05-11 18:44:00,79.6,51.8,29.93,WNW,295,0.0,3.0,38,0.00,,CLR,0.00,VWS V14.01,2013-05-12 01:44:00,
2013-05-11 18:46:00,79.4,52.3,29.92,WNW,295,1.0,3.0,39,0.00,,CLR,0.00,VWS V14.01,2013-05-12 01:46:00,
2013-05-11 18:48:00,79.2,52.8,29.92,WNW,295,1.0,2.0,40,0.00,,CLR,0.00,VWS V14.01,2013-05-12 01:48:00,
2013-05-11 18:49:00,79.2,52.1,29.92,WNW,294,0.0,4.0,39,0.00,,CLR,0.00,VWS V14.01,2013-05-12 01:49:00,
2013-05-11 18:51:00,78.8,52.5,29.92,WNW,294,0.0,4.0,40,0.00,,CLR,0.00,VWS V14.01,2013-05-12 01:51:00,
2013-05-11 18:55:00,78.6,53.0,29.92,WNW,294,1.0,1.0,41,0.00,,CLR,0.00,VWS V14.01,2013-05-12 01:55:00,
2013-05-11 18:56:00,78.5,52.9,29.92,WNW,294,0.0,2.0,41,0.00,,CLR,0.00,VWS V14.01,2013-05-12 01:56:00,
2013-05-11 18:58:00,78.3,52.0,29.92,WNW,294,0.0,1.0,40,0.00,,CLR,0.00,VWS V14.01,2013-05-12 01:58:00,
2013-05-11 19:02:00,78.1,52.5,29.92,WNW,294,0.0,0.0,41,0.00,,CLR,0.00,VWS V14.01,2013-05-12 02:02:00,
2013-05-11 19:04:00,78.1,52.5,29.92,WNW,294,0.0,1.0,41,0.00,,CLR,0.00,VWS V14.01,2013-05-12 02:04:00,
2013-05-11 19:05:00,78.1,52.5,29.92,WNW,294,0.0,1.0,41,0.00,,CLR,0.00,VWS V14.01,2013-05-12 02:05:00,
2013-05-11 19:08:00,77.9,52.3,29.92,WNW,294,0.0,0.0,41,0.00,,CLR,0.00,VWS V14.01,2013-05-12 02:08:00,
2013-05-11 19:09:00,77.9,52.3,29.92,WNW,294,0.0,0.0,41,0.00,,CLR,0.00,VWS V14.01,2013-05-12 02:09:00,
2013-05-11 19:11:00,77.7,52.8,29.92,WNW,294,0.0,1.0,42,0.00,,CLR,0.00,VWS V14.01,2013-05-12 02:11:00,
2013-05-11 19:13:00,77.6,52.1,29.92,WNW,294,0.0,1.0,41,0.00,,CLR,0.00,VWS V14.01,2013-05-12 02:13:00,
2013-05-11 19:14:00,77.6,52.7,29.92,WNW,294,0.0,1.0,42,0.00,,CLR,0.00,VWS V14.01,2013-05-12 02:14:00,
2013-05-11 19:15:00,77.6,52.7,29.92,WNW,294,0.0,1.0,42,0.00,,CLR,0.00,VWS V14.01,2013-05-12 02:15:00,
2013-05-11 19:16:00,77.6,54.0,29.92,WNW,294,0.0,1.0,44,0.00,,CLR,0.00,VWS V14.01,2013-05-12 02:16:00,
2013-05-11 19:20:00,77.2,53.6,29.92,WNW,294,0.0,0.0,44,0.00,,CLR,0.00,VWS V14.01,2013-05-12 02:20:00,
2013-05-11 19:22:00,77.2,53.6,29.92,WNW,294,0.0,1.0,44,0.00,,CLR,0.00,VWS V14.01,2013-05-12 02:22:00,
2013-05-11 19:25:00,76.8,52.0,29.92,WNW,294,0.0,2.0,42,0.00,,CLR,0.00,VWS V14.01,2013-05-12 02:25:00,
2013-05-11 19:26:00,76.8,53.3,29.92,WNW,294,0.0,2.0,44,0.00,,CLR,0.00,VWS V14.01,2013-05-12 02:26:00,
2013-05-11 19:27:00,76.8,53.3,29.92,WNW,294,0.0,2.0,44,0.00,,CLR,0.00,VWS V14.01,2013-05-12 02:27:00,
2013-05-11 19:28:00,76.7,53.2,29.92,WNW,294,0.0,2.0,44,0.00,,CLR,0.00,VWS V14.01,2013-05-12 02:28:00,
2013-05-11 19:30:00,76.7,53.2,29.93,WNW,294,0.0,2.0,44,0.00,,CLR,0.00,VWS V14.01,2013-05-12 02:30:00,
2013-05-11 19:31:00,76.5,53.0,29.93,WNW,294,0.0,0.0,44,0.00,,CLR,0.00,VWS V14.01,2013-05-12 02:31:00,
2013-05-11 19:32:00,76.5,52.4,29.93,WNW,294,0.0,0.0,43,0.00,,CLR,0.00,VWS V14.01,2013-05-12 02:32:00,
2013-05-11 19:35:00,76.3,52.8,29.93,WNW,294,0.0,3.0,44,0.00,,CLR,0.00,VWS V14.01,2013-05-12 02:35:00,
2013-05-11 19:36:00,76.3,52.8,29.93,WNW,294,0.0,3.0,44,0.00,,CLR,0.00,VWS V14.01,2013-05-12 02:36:00,
2013-05-11 19:38:00,76.1,52.6,29.93,WNW,294,0.0,1.0,44,0.00,,CLR,0.00,VWS V14.01,2013-05-12 02:38:00,
2013-05-11 19:41:00,76.0,53.2,29.93,WNW,294,0.0,0.0,45,0.00,,CLR,0.00,VWS V14.01,2013-05-12 02:41:00,
2013-05-11 19:43:00,76.0,52.5,29.93,WNW,294,0.0,1.0,44,0.00,,CLR,0.00,VWS V14.01,2013-05-12 02:43:00,
2013-05-11 19:45:00,75.8,52.4,29.92,WNW,294,0.0,1.0,44,0.00,,CLR,0.00,VWS V14.01,2013-05-12 02:45:00,
2013-05-11 19:46:00,75.8,53.0,29.92,WNW,294,0.0,0.0,45,0.00,,CLR,0.00,VWS V14.01,2013-05-12 02:46:00,
2013-05-11 19:49:00,75.6,52.8,29.92,WSW,246,2.0,5.0,45,0.00,,CLR,0.00,VWS V14.01,2013-05-12 02:49:00,
2013-05-11 19:50:00,75.6,52.8,29.92,WSW,246,0.0,5.0,45,0.00,,CLR,0.00,VWS V14.01,2013-05-12 02:50:00,
2013-05-11 19:51:00,75.6,53.4,29.92,WSW,246,0.0,5.0,46,0.00,,CLR,0.00,VWS V14.01,2013-05-12 02:51:00,
2013-05-11 19:52:00,75.4,53.2,29.92,SW,236,3.0,3.0,46,0.00,,CLR,0.00,VWS V14.01,2013-05-12 02:52:00,
2013-05-11 19:56:00,75.3,52.5,29.92,WSW,239,0.0,3.0,45,0.00,,CLR,0.00,VWS V14.01,2013-05-12 02:56:00,
2013-05-11 19:59:00,75.1,52.9,29.92,WSW,240,2.0,5.0,46,0.00,,CLR,0.00,VWS V14.01,2013-05-12 02:59:00,
2013-05-11 20:01:00,75.1,52.9,29.93,WSW,240,0.0,1.0,46,0.00,,CLR,0.00,VWS V14.01,2013-05-12 03:01:00,
2013-05-11 20:03:00,74.9,53.3,29.93,WSW,240,0.0,1.0,47,0.00,,CLR,0.00,VWS V14.01,2013-05-12 03:03:00,
2013-05-11 20:04:00,74.9,53.9,29.93,WSW,240,0.0,1.0,48,0.00,,CLR,0.00,VWS V14.01,2013-05-12 03:04:00,
2013-05-11 20:05:00,74.9,53.9,29.93,WSW,240,0.0,1.0,48,0.00,,CLR,0.00,VWS V14.01,2013-05-12 03:05:00,
2013-05-11 20:06:00,74.7,53.7,29.93,WSW,240,0.0,1.0,48,0.00,,CLR,0.00,VWS V14.01,2013-05-12 03:06:00,
2013-05-11 20:09:00,74.6,53.6,29.93,WSW,240,0.0,2.0,48,0.00,,CLR,0.00,VWS V14.01,2013-05-12 03:09:00,
2013-05-11 20:10:00,74.6,53.6,29.93,WSW,240,0.0,2.0,48,0.00,,CLR,0.00,VWS V14.01,2013-05-12 03:10:00,
2013-05-11 20:14:00,74.4,54.0,29.93,WSW,241,1.0,4.0,49,0.00,,CLR,0.00,VWS V14.01,2013-05-12 03:14:00,
2013-05-11 20:15:00,74.4,53.5,29.93,WSW,241,3.0,4.0,48,0.00,,CLR,0.00,VWS V14.01,2013-05-12 03:15:00,
2013-05-11 20:16:00,74.2,53.8,29.93,WSW,241,0.0,4.0,49,0.00,,CLR,0.00,VWS V14.01,2013-05-12 03:16:00,
2013-05-11 20:19:00,74.0,54.2,29.93,WSW,241,0.0,2.0,50,0.00,,CLR,0.00,VWS V14.01,2013-05-12 03:19:00,
2013-05-11 20:20:00,74.0,54.2,29.93,WSW,241,0.0,2.0,50,0.00,,CLR,0.00,VWS V14.01,2013-05-12 03:20:00,
2013-05-11 20:21:00,73.9,54.1,29.93,WSW,241,0.0,1.0,50,0.00,,CLR,0.00,VWS V14.01,2013-05-12 03:21:00,
2013-05-11 20:22:00,73.9,54.1,29.93,WSW,241,0.0,1.0,50,0.00,,CLR,0.00,VWS V14.01,2013-05-12 03:22:00,
2013-05-11 20:26:00,73.7,53.9,29.93,WSW,254,1.0,3.0,50,0.00,,CLR,0.00,VWS V14.01,2013-05-12 03:26:00,
2013-05-11 20:27:00,73.5,54.3,29.93,WSW,254,1.0,3.0,51,0.00,,CLR,0.00,VWS V14.01,2013-05-12 03:27:00,
2013-05-11 20:28:00,73.5,54.3,29.93,WSW,254,1.0,3.0,51,0.00,,CLR,0.00,VWS V14.01,2013-05-12 03:28:00,
2013-05-11 20:30:00,73.3,54.6,29.93,SSE,162,2.0,5.0,52,0.00,,CLR,0.00,VWS V14.01,2013-05-12 03:30:00,
2013-05-11 20:31:00,73.3,54.6,29.93,South,174,2.0,3.0,52,0.00,,CLR,0.00,VWS V14.01,2013-05-12 03:31:00,
2013-05-11 20:33:00,73.2,55.1,29.93,WSW,251,8.0,10.0,53,0.00,,CLR,0.00,VWS V14.01,2013-05-12 03:33:00,
2013-05-11 20:36:00,73.0,55.4,29.93,NNW,330,2.0,11.0,54,0.00,,CLR,0.00,VWS V14.01,2013-05-12 03:36:00,
2013-05-11 20:38:00,72.7,55.1,29.93,West,267,0.0,5.0,54,0.00,,CLR,0.00,VWS V14.01,2013-05-12 03:38:00,
2013-05-11 20:39:00,72.7,55.1,29.93,West,267,2.0,5.0,54,0.00,,CLR,0.00,VWS V14.01,2013-05-12 03:39:00,
2013-05-11 20:41:00,72.5,55.4,29.93,SSW,200,2.0,2.0,55,0.00,,CLR,0.00,VWS V14.01,2013-05-12 03:41:00,
2013-05-11 20:43:00,72.3,55.2,29.93,WSW,257,0.0,5.0,55,0.00,,CLR,0.00,VWS V14.01,2013-05-12 03:43:00,
2013-05-11 20:44:00,72.3,55.2,29.93,WSW,257,0.0,5.0,55,0.00,,CLR,0.00,VWS V14.01,2013-05-12 03:44:00,
2013-05-11 20:46:00,72.3,55.2,29.93,West,261,0.0,5.0,55,0.00,,CLR,0.00,VWS V14.01,2013-05-12 03:46:00,
2013-05-11 20:47:00,72.1,55.6,29.93,West,261,0.0,2.0,56,0.00,,CLR,0.00,VWS V14.01,2013-05-12 03:47:00,
2013-05-11 20:49:00,72.0,56.0,29.93,West,261,0.0,2.0,57,0.00,,CLR,0.00,VWS V14.01,2013-05-12 03:49:00,
2013-05-11 20:50:00,72.0,56.0,29.93,West,261,0.0,2.0,57,0.00,,CLR,0.00,VWS V14.01,2013-05-12 03:50:00,
2013-05-11 20:51:00,72.0,56.0,29.93,West,261,1.0,1.0,57,0.00,,CLR,0.00,VWS V14.01,2013-05-12 03:51:00,
2013-05-11 20:55:00,71.8,55.8,29.93,West,265,0.0,6.0,57,0.00,,CLR,0.00,VWS V14.01,2013-05-12 03:55:00,
2013-05-11 20:56:00,71.8,56.2,29.93,West,265,0.0,6.0,58,0.00,,CLR,0.00,VWS V14.01,2013-05-12 03:56:00,
2013-05-11 21:01:00,71.5,56.4,29.95,West,265,0.0,1.0,59,0.00,,CLR,0.00,VWS V14.01,2013-05-12 04:01:00,
2013-05-11 21:02:00,71.5,56.4,29.95,West,265,0.0,1.0,59,0.00,,CLR,0.00,VWS V14.01,2013-05-12 04:02:00,
2013-05-11 21:04:00,71.3,56.2,29.95,West,265,0.0,2.0,59,0.00,,CLR,0.00,VWS V14.01,2013-05-12 04:04:00,
2013-05-11 21:06:00,71.1,56.5,29.95,West,265,0.0,2.0,60,0.00,,CLR,0.00,VWS V14.01,2013-05-12 04:06:00,
2013-05-11 21:07:00,71.1,56.5,29.95,West,265,0.0,0.0,60,0.00,,CLR,0.00,VWS V14.01,2013-05-12 04:07:00,
2013-05-11 21:12:00,70.9,56.8,29.95,West,265,0.0,0.0,61,0.00,,CLR,0.00,VWS V14.01,2013-05-12 04:12:00,
2013-05-11 21:14:00,70.8,56.7,29.95,West,265,0.0,0.0,61,0.00,,CLR,0.00,VWS V14.01,2013-05-12 04:14:00,
2013-05-11 21:16:00,70.6,57.0,29.95,West,265,0.0,2.0,62,0.00,,CLR,0.00,VWS V14.01,2013-05-12 04:16:00,
2013-05-11 21:17:00,70.6,57.0,29.95,West,265,0.0,0.0,62,0.00,,CLR,0.00,VWS V14.01,2013-05-12 04:17:00,
2013-05-11 21:18:00,70.6,57.4,29.95,SW,236,0.0,5.0,63,0.00,,CLR,0.00,VWS V14.01,2013-05-12 04:18:00,
2013-05-11 21:20:00,70.4,57.2,29.95,SW,236,0.0,5.0,63,0.00,,CLR,0.00,VWS V14.01,2013-05-12 04:20:00,
2013-05-11 21:21:00,70.4,57.2,29.95,SW,236,0.0,5.0,63,0.00,,CLR,0.00,VWS V14.01,2013-05-12 04:21:00,
2013-05-11 21:24:00,70.3,57.1,29.95,SW,236,0.0,0.0,63,0.00,,CLR,0.00,VWS V14.01,2013-05-12 04:24:00,
2013-05-11 21:25:00,70.3,57.6,29.95,SW,236,0.0,0.0,64,0.00,,CLR,0.00,VWS V14.01,2013-05-12 04:25:00,
2013-05-11 21:29:00,69.9,57.6,29.95,SW,236,0.0,1.0,65,0.00,,CLR,0.00,VWS V14.01,2013-05-12 04:29:00,
2013-05-11 21:31:00,69.8,57.5,29.96,SW,236,0.0,1.0,65,0.00,,CLR,0.00,VWS V14.01,2013-05-12 04:31:00,
2013-05-11 21:32:00,69.6,57.8,29.96,SW,236,0.0,0.0,66,0.00,,CLR,0.00,VWS V14.01,2013-05-12 04:32:00,
2013-05-11 21:34:00,69.6,57.8,29.96,SW,236,0.0,1.0,66,0.00,,CLR,0.00,VWS V14.01,2013-05-12 04:34:00,
2013-05-11 21:36:00,69.4,57.6,29.96,SW,236,0.0,1.0,66,0.00,,CLR,0.00,VWS V14.01,2013-05-12 04:36:00,
2013-05-11 21:37:00,69.4,57.6,29.96,SW,236,0.0,0.0,66,0.00,,CLR,0.00,VWS V14.01,2013-05-12 04:37:00,
2013-05-11 21:38:00,69.3,57.9,29.96,SW,236,0.0,0.0,67,0.00,,CLR,0.00,VWS V14.01,2013-05-12 04:38:00,
2013-05-11 21:39:00,69.3,57.9,29.96,SW,236,0.0,0.0,67,0.00,,CLR,0.00,VWS V14.01,2013-05-12 04:39:00,
2013-05-11 21:41:00,69.3,57.9,29.96,SW,236,0.0,0.0,67,0.00,,CLR,0.00,VWS V14.01,2013-05-12 04:41:00,
2013-05-11 21:45:00,69.1,58.1,29.96,SW,236,0.0,0.0,68,0.00,,CLR,0.00,VWS V14.01,2013-05-12 04:45:00,
2013-05-11 21:46:00,68.9,57.9,29.97,SW,236,0.0,0.0,68,0.00,,CLR,0.00,VWS V14.01,2013-05-12 04:46:00,
2013-05-11 21:48:00,68.9,57.9,29.97,SW,236,0.0,0.0,68,0.00,,CLR,0.00,VWS V14.01,2013-05-12 04:48:00,
2013-05-11 21:50:00,68.8,58.2,29.97,SW,229,0.0,0.0,69,0.00,,CLR,0.00,VWS V14.01,2013-05-12 04:50:00,
2013-05-11 21:52:00,68.6,58.0,29.97,SW,236,0.0,0.0,69,0.00,,CLR,0.00,VWS V14.01,2013-05-12 04:52:00,
2013-05-11 21:53:00,68.6,58.0,29.97,SW,236,0.0,0.0,69,0.00,,CLR,0.00,VWS V14.01,2013-05-12 04:53:00,
2013-05-11 21:55:00,68.6,58.0,29.97,SW,236,0.0,0.0,69,0.00,,CLR,0.00,VWS V14.01,2013-05-12 04:55:00,
2013-05-11 21:56:00,68.4,57.8,29.97,SW,236,0.0,0.0,69,0.00,,CLR,0.00,VWS V14.01,2013-05-12 04:56:00,
2013-05-11 21:58:00,68.4,57.8,29.97,SW,236,0.0,0.0,69,0.00,,CLR,0.00,VWS V14.01,2013-05-12 04:58:00,
2013-05-11 21:59:00,68.4,57.8,29.97,SE,126,0.0,0.0,69,0.00,,CLR,0.00,VWS V14.01,2013-05-12 04:59:00,
2013-05-11 22:00:00,68.3,58.2,29.97,SE,126,2.0,2.0,70,0.00,,CLR,0.00,VWS V14.01,2013-05-12 05:00:00,
2013-05-11 22:01:00,68.3,58.2,29.97,SE,126,0.0,2.0,70,0.00,,CLR,0.00,VWS V14.01,2013-05-12 05:01:00,
2013-05-11 22:05:00,68.1,58.3,29.97,SE,126,0.0,0.0,71,0.00,,CLR,0.00,VWS V14.01,2013-05-12 05:05:00,
2013-05-11 22:06:00,67.9,58.2,29.97,SE,126,0.0,0.0,71,0.00,,CLR,0.00,VWS V14.01,2013-05-12 05:06:00,
2013-05-11 22:11:00,67.8,58.5,29.97,SE,126,0.0,1.0,72,0.00,,CLR,0.00,VWS V14.01,2013-05-12 05:11:00,
2013-05-11 22:12:00,67.6,58.3,29.97,SE,126,0.0,0.0,72,0.00,,CLR,0.00,VWS V14.01,2013-05-12 05:12:00,
2013-05-11 22:13:00,67.6,58.3,29.97,SE,126,0.0,0.0,72,0.00,,CLR,0.00,VWS V14.01,2013-05-12 05:13:00,
2013-05-11 22:15:00,67.4,58.1,29.97,SE,126,0.0,1.0,72,0.00,,CLR,0.00,VWS V14.01,2013-05-12 05:15:00,
2013-05-11 22:17:00,67.4,58.1,29.97,SE,126,0.0,0.0,72,0.00,,CLR,0.00,VWS V14.01,2013-05-12 05:17:00,
2013-05-11 22:18:00,67.4,58.1,29.97,SE,126,0.0,0.0,72,0.00,,CLR,0.00,VWS V14.01,2013-05-12 05:18:00,
2013-05-11 22:21:00,67.3,58.0,29.97,SE,126,0.0,0.0,72,0.00,,CLR,0.00,VWS V14.01,2013-05-12 05:21:00,
2013-05-11 22:22:00,67.3,58.0,29.97,SE,126,0.0,1.0,72,0.00,,CLR,0.00,VWS V14.01,2013-05-12 05:22:00,
2013-05-11 22:23:00,67.3,58.0,29.97,SE,126,0.0,1.0,72,0.00,,CLR,0.00,VWS V14.01,2013-05-12 05:23:00,
2013-05-11 22:26:00,67.3,58.4,29.97,SE,126,0.0,1.0,73,0.00,,CLR,0.00,VWS V14.01,2013-05-12 05:26:00,
2013-05-11 22:27:00,67.1,58.2,29.97,SE,126,0.0,0.0,73,0.00,,CLR,0.00,VWS V14.01,2013-05-12 05:27:00,
2013-05-11 22:28:00,67.1,58.2,29.97,SE,126,0.0,0.0,73,0.00,,CLR,0.00,VWS V14.01,2013-05-12 05:28:00,
2013-05-11 22:31:00,67.1,58.2,29.97,SE,126,0.0,1.0,73,0.00,,CLR,0.00,VWS V14.01,2013-05-12 05:31:00,
2013-05-11 22:32:00,66.9,58.0,29.97,SE,126,0.0,0.0,73,0.00,,CLR,0.00,VWS V14.01,2013-05-12 05:32:00,
2013-05-11 22:33:00,66.9,58.0,29.97,SE,126,2.0,3.0,73,0.00,,CLR,0.00,VWS V14.01,2013-05-12 05:33:00,
2013-05-11 22:34:00,66.9,58.0,29.97,SE,126,1.0,3.0,73,0.00,,CLR,0.00,VWS V14.01,2013-05-12 05:34:00,
2013-05-11 22:36:00,66.8,57.9,29.97,SE,126,1.0,3.0,73,0.00,,CLR,0.00,VWS V14.01,2013-05-12 05:36:00,
2013-05-11 22:37:00,66.8,57.9,29.97,SE,126,1.0,2.0,73,0.00,,CLR,0.00,VWS V14.01,2013-05-12 05:37:00,
2013-05-11 22:38:00,66.8,57.9,29.97,SE,126,2.0,2.0,73,0.00,,CLR,0.00,VWS V14.01,2013-05-12 05:38:00,
2013-05-11 22:39:00,66.8,57.9,29.97,SE,126,2.0,2.0,73,0.00,,CLR,0.00,VWS V14.01,2013-05-12 05:39:00,
2013-05-11 22:43:00,66.6,57.7,29.97,SE,126,2.0,2.0,73,0.00,,CLR,0.00,VWS V14.01,2013-05-12 05:43:00,
2013-05-11 22:44:00,66.6,57.7,29.97,ESE,120,0.0,2.0,73,0.00,,CLR,0.00,VWS V14.01,2013-05-12 05:44:00,
2013-05-11 22:45:00,66.6,57.7,29.97,SE,126,2.0,2.0,73,0.00,,CLR,0.00,VWS V14.01,2013-05-12 05:45:00,
2013-05-11 22:46:00,66.6,57.7,29.96,SE,126,0.0,2.0,73,0.00,,CLR,0.00,VWS V14.01,2013-05-12 05:46:00,
2013-05-11 22:48:00,66.6,57.7,29.96,SE,126,2.0,2.0,73,0.00,,CLR,0.00,VWS V14.01,2013-05-12 05:48:00,
2013-05-11 22:49:00,66.6,57.7,29.96,SE,126,2.0,2.0,73,0.00,,CLR,0.00,VWS V14.01,2013-05-12 05:49:00,
2013-05-11 22:52:00,66.6,57.7,29.96,SE,126,3.0,3.0,73,0.00,,CLR,0.00,VWS V14.01,2013-05-12 05:52:00,
2013-05-11 22:53:00,66.6,57.7,29.96,SE,126,1.0,3.0,73,0.00,,CLR,0.00,VWS V14.01,2013-05-12 05:53:00,
2013-05-11 22:54:00,66.6,57.7,29.96,SE,126,2.0,3.0,73,0.00,,CLR,0.00,VWS V14.01,2013-05-12 05:54:00,
2013-05-11 22:56:00,66.6,57.7,29.96,SE,126,0.0,3.0,73,0.00,,CLR,0.00,VWS V14.01,2013-05-12 05:56:00,
2013-05-11 22:57:00,66.6,57.7,29.96,SE,126,2.0,2.0,73,0.00,,CLR,0.00,VWS V14.01,2013-05-12 05:57:00,
2013-05-11 22:59:00,66.6,57.7,29.96,SE,126,1.0,2.0,73,0.00,,CLR,0.00,VWS V14.01,2013-05-12 05:59:00,
2013-05-11 23:00:00,66.6,57.7,29.96,SE,126,2.0,2.0,73,0.00,,CLR,0.00,VWS V14.01,2013-05-12 06:00:00,
2013-05-11 23:01:00,66.6,57.7,29.96,SE,126,1.0,2.0,73,0.00,,CLR,0.00,VWS V14.01,2013-05-12 06:01:00,
2013-05-11 23:03:00,66.6,57.7,29.96,SE,126,2.0,2.0,73,0.00,,CLR,0.00,VWS V14.01,2013-05-12 06:03:00,
2013-05-11 23:05:00,66.6,57.7,29.96,SE,126,1.0,4.0,73,0.00,,CLR,0.00,VWS V14.01,2013-05-12 06:05:00,
2013-05-11 23:06:00,66.6,57.7,29.96,SE,126,0.0,1.0,73,0.00,,CLR,0.00,VWS V14.01,2013-05-12 06:06:00,
2013-05-11 23:08:00,66.6,58.1,29.96,SE,126,1.0,2.0,74,0.00,,CLR,0.00,VWS V14.01,2013-05-12 06:08:00,
2013-05-11 23:09:00,66.4,57.9,29.96,SE,126,1.0,2.0,74,0.00,,CLR,0.00,VWS V14.01,2013-05-12 06:09:00,
2013-05-11 23:11:00,66.4,57.9,29.96,SE,126,2.0,3.0,74,0.00,,CLR,0.00,VWS V14.01,2013-05-12 06:11:00,
2013-05-11 23:13:00,66.3,57.8,29.96,SE,126,2.0,3.0,74,0.00,,CLR,0.00,VWS V14.01,2013-05-12 06:13:00,
2013-05-11 23:14:00,66.3,57.8,29.96,SE,126,2.0,3.0,74,0.00,,CLR,0.00,VWS V14.01,2013-05-12 06:14:00,
2013-05-11 23:15:00,66.3,57.8,29.96,SE,126,2.0,3.0,74,0.00,,CLR,0.00,VWS V14.01,2013-05-12 06:15:00,
2013-05-11 23:19:00,66.1,57.6,29.95,SE,126,1.0,3.0,74,0.00,,CLR,0.00,VWS V14.01,2013-05-12 06:19:00,
2013-05-11 23:20:00,66.1,57.6,29.95,SE,126,2.0,3.0,74,0.00,,CLR,0.00,VWS V14.01,2013-05-12 06:20:00,
2013-05-11 23:21:00,66.1,57.6,29.95,SE,126,3.0,3.0,74,0.00,,CLR,0.00,VWS V14.01,2013-05-12 06:21:00,
2013-05-11 23:24:00,66.0,57.9,29.95,SE,124,2.0,3.0,75,0.00,,CLR,0.00,VWS V14.01,2013-05-12 06:24:00,
2013-05-11 23:25:00,66.0,57.9,29.95,SE,124,2.0,3.0,75,0.00,,CLR,0.00,VWS V14.01,2013-05-12 06:25:00,
2013-05-11 23:28:00,65.8,57.7,29.95,East,96,2.0,3.0,75,0.00,,CLR,0.00,VWS V14.01,2013-05-12 06:28:00,
2013-05-11 23:29:00,65.8,57.7,29.95,East,96,2.0,3.0,75,0.00,,CLR,0.00,VWS V14.01,2013-05-12 06:29:00,
2013-05-11 23:31:00,65.8,57.7,29.95,East,96,0.0,3.0,75,0.00,,CLR,0.00,VWS V14.01,2013-05-12 06:31:00,
2013-05-11 23:35:00,65.6,57.8,29.95,East,96,0.0,1.0,76,0.00,,CLR,0.00,VWS V14.01,2013-05-12 06:35:00,
2013-05-11 23:36:00,65.6,57.8,29.95,East,96,0.0,1.0,76,0.00,,CLR,0.00,VWS V14.01,2013-05-12 06:36:00,
2013-05-11 23:37:00,65.6,57.8,29.95,East,96,0.0,0.0,76,0.00,,CLR,0.00,VWS V14.01,2013-05-12 06:37:00,
2013-05-11 23:39:00,65.6,57.8,29.95,East,96,0.0,0.0,76,0.00,,CLR,0.00,VWS V14.01,2013-05-12 06:39:00,
2013-05-11 23:42:00,65.5,57.7,29.95,East,96,0.0,0.0,76,0.00,,CLR,0.00,VWS V14.01,2013-05-12 06:42:00,
2013-05-11 23:43:00,65.5,57.7,29.95,East,96,0.0,0.0,76,0.00,,CLR,0.00,VWS V14.01,2013-05-12 06:43:00,
2013-05-11 23:45:00,65.3,57.5,29.95,East,96,0.0,0.0,76,0.00,,CLR,0.00,VWS V14.01,2013-05-12 06:45:00,
2013-05-11 23:46:00,65.3,57.5,29.95,East,96,0.0,0.0,76,0.00,,CLR,0.00,VWS V14.01,2013-05-12 06:46:00,
2013-05-11 23:48:00,65.3,57.5,29.95,East,96,0.0,0.0,76,0.00,,CLR,0.00,VWS V14.01,2013-05-12 06:48:00,
2013-05-11 23:50:00,65.2,57.8,29.95,East,96,0.0,0.0,77,0.00,,CLR,0.00,VWS V14.01,2013-05-12 06:50:00,
2013-05-11 23:52:00,65.2,57.8,29.95,East,96,0.0,0.0,77,0.00,,CLR,0.00,VWS V14.01,2013-05-12 06:52:00,
2013-05-11 23:55:00,65.0,57.6,29.95,East,96,0.0,0.0,77,0.00,,CLR,0.00,VWS V14.01,2013-05-12 06:55:00,
2013-05-11 23:57:00,65.0,57.6,29.95,East,96,0.0,0.0,77,0.00,,CLR,0.00,VWS V14.01,2013-05-12 06:57:00,
2013-05-11 23:59:00,64.8,57.4,29.95,East,96,0.0,0.0,77,0.00,,CLR,0.00,VWS V14.01,2013-05-12 06:59:00,